Wetterdaten: aktuell Dienstag, 19.01.2021 03:20
Datum Zeit Temp. Aussen Temp. o. S. Temp +5cm Feuchte Auss Luftdruck Regen Sonnenschein Regendauer Solar Windben Empfang
19.01.2021 03:20 5,1 C 4,4 C 2,3 C 86 % 1016,2 hPa 0,0 l/m 0 min 0 min 0 W/m 19,3 km/h (3 Bft) 97,87 %
19.01.2021 03:18 5,1 C 4,4 C 2,3 C 86 % 1016,2 hPa 0,0 l/m 0 min 0 min 0 W/m 3,2 km/h (1 Bft) 97,87 %
19.01.2021 03:16 5,1 C 4,4 C 2,3 C 86 % 1016,2 hPa 0,0 l/m 0 min 0 min 0 W/m 8,0 km/h (2 Bft) 93,62 %
19.01.2021 03:14 5,1 C 4,4 C 2,3 C 86 % 1016,3 hPa 0,0 l/m 0 min 0 min 0 W/m 0,0 km/h (0 Bft) 95,74 %
19.01.2021 03:12 5,1 C 4,4 C 2,3 C 86 % 1016,3 hPa 0,0 l/m 0 min 0 min 0 W/m 12,9 km/h (3 Bft) 95,65 %
19.01.2021 03:10 5,1 C 4,4 C 2,3 C 87 % 1016,4 hPa 0,0 l/m 0 min 0 min 0 W/m 3,2 km/h (1 Bft) 95,74 %
19.01.2021 03:08 5,1 C 4,4 C 2,3 C 87 % 1016,3 hPa 0,0 l/m 0 min 0 min 0 W/m 1,6 km/h (1 Bft) 95,74 %
19.01.2021 03:06 5,1 C 4,4 C 2,3 C 87 % 1016,5 hPa 0,0 l/m 0 min 0 min 0 W/m 9,7 km/h (2 Bft) 95,74 %
19.01.2021 03:04 5,1 C 4,4 C 2,3 C 87 % 1016,5 hPa 0,0 l/m 0 min 0 min 0 W/m 3,2 km/h (1 Bft) 95,74 %
19.01.2021 03:02 5,1 C 4,4 C 2,3 C 87 % 1016,5 hPa 0,0 l/m 0 min 0 min 0 W/m 0,0 km/h (0 Bft) 91,49 %
19.01.2021 03:00 5,1 C 4,4 C 2,3 C 87 % 1016,6 hPa 0,0 l/m 0 min 0 min 0 W/m 11,3 km/h (2 Bft) 93,48 %
19.01.2021 02:58 5,1 C 5,0 C 2,3 C 88 % 1016,6 hPa 0,0 l/m 0 min 0 min 0 W/m 11,3 km/h (2 Bft) 95,74 %
19.01.2021 02:56 5,1 C 4,4 C 2,3 C 88 % 1016,6 hPa 0,0 l/m 0 min 0 min 0 W/m 9,7 km/h (2 Bft) 95,74 %
19.01.2021 02:54 5,1 C 4,4 C 2,3 C 88 % 1016,7 hPa 0,0 l/m 0 min 0 min 0 W/m 6,4 km/h (2 Bft) 95,74 %
19.01.2021 02:52 5,1 C 4,4 C 2,3 C 88 % 1016,7 hPa 0,0 l/m 0 min 0 min 0 W/m 3,2 km/h (1 Bft) 95,74 %
19.01.2021 02:50 5,1 C 4,4 C 2,3 C 88 % 1016,7 hPa 0,0 l/m 0 min 0 min 0 W/m 16,1 km/h (3 Bft) 95,74 %
19.01.2021 02:48 5,1 C 4,4 C 2,3 C 88 % 1016,8 hPa 0,0 l/m 0 min 0 min 0 W/m 0,0 km/h (0 Bft) 93,48 %
19.01.2021 02:46 5,1 C 4,4 C 2,3 C 88 % 1016,8 hPa 0,0 l/m 0 min 0 min 0 W/m 8,0 km/h (2 Bft) 91,49 %
19.01.2021 02:44 5,2 C 4,4 C 2,3 C 88 % 1016,8 hPa 0,0 l/m 0 min 0 min 0 W/m 0,0 km/h (0 Bft) 95,74 %
19.01.2021 02:42 5,2 C 4,4 C 2,3 C 88 % 1016,9 hPa 0,0 l/m 0 min 0 min 0 W/m 0,0 km/h (0 Bft) 93,62 %
19.01.2021 02:40 5,1 C 4,4 C 2,3 C 88 % 1017,0 hPa 0,0 l/m 0 min 0 min 0 W/m 1,6 km/h (1 Bft) 97,87 %
19.01.2021 02:38 5,2 C 4,4 C 2,3 C 88 % 1017,0 hPa 0,0 l/m 0 min 0 min 0 W/m 0,0 km/h (0 Bft) 97,87 %
19.01.2021 02:36 5,2 C 4,4 C 2,3 C 88 % 1017,2 hPa 0,0 l/m 0 min 0 min 0 W/m 9,7 km/h (2 Bft) 97,83 %
19.01.2021 02:34 5,2 C 4,4 C 2,3 C 88 % 1017,1 hPa 0,0 l/m 0 min 0 min 0 W/m 0,0 km/h (0 Bft) 97,87 %
19.01.2021 02:32 5,2 C 4,4 C 2,3 C 89 % 1016,9 hPa 0,0 l/m 0 min 0 min 0 W/m 1,6 km/h (1 Bft) 97,87 %
19.01.2021 02:30 5,2 C 5,0 C 2,3 C 89 % 1017,0 hPa 0,0 l/m 0 min 0 min 0 W/m 9,7 km/h (2 Bft) 100,00 %
19.01.2021 02:28 5,2 C 5,0 C 2,3 C 89 % 1017,0 hPa 0,0 l/m 0 min 0 min 0 W/m 6,4 km/h (2 Bft) 97,87 %
19.01.2021 02:26 5,2 C 4,4 C 2,3 C 89 % 1017,0 hPa 0,0 l/m 0 min 0 min 0 W/m 1,6 km/h (1 Bft) 97,87 %
19.01.2021 02:24 5,2 C 4,4 C 2,3 C 89 % 1017,0 hPa 0,0 l/m 0 min 0 min 0 W/m 11,3 km/h (2 Bft) 100,00 %
19.01.2021 02:22 5,2 C 4,4 C 2,3 C 89 % 1017,0 hPa 0,0 l/m 0 min 0 min 0 W/m 8,0 km/h (2 Bft) 97,87 %
19.01.2021 02:20 5,2 C 5,0 C 2,3 C 89 % 1017,0 hPa 0,0 l/m 0 min 0 min 0 W/m 1,6 km/h (1 Bft) 100,00 %
19.01.2021 02:18 5,2 C 5,0 C 2,3 C 89 % 1017,1 hPa 0,0 l/m 0 min 0 min 0 W/m 1,6 km/h (1 Bft) 97,87 %
19.01.2021 02:16 5,2 C 4,4 C 2,3 C 89 % 1017,1 hPa 0,0 l/m 0 min 0 min 0 W/m 6,4 km/h (2 Bft) 100,00 %
19.01.2021 02:14 5,2 C 5,0 C 2,3 C 89 % 1017,0 hPa 0,0 l/m 0 min 0 min 0 W/m 1,6 km/h (1 Bft) 100,00 %
19.01.2021 02:12 5,2 C 5,0 C 2,3 C 89 % 1017,2 hPa 0,0 l/m 0 min 0 min 0 W/m 6,4 km/h (2 Bft) 100,00 %
19.01.2021 02:10 5,2 C 5,0 C 2,8 C 89 % 1017,2 hPa 0,0 l/m 0 min 0 min 0 W/m 1,6 km/h (1 Bft) 100,00 %
19.01.2021 02:08 5,2 C 5,0 C 2,8 C 90 % 1017,1 hPa 0,0 l/m 0 min 0 min 0 W/m 11,3 km/h (2 Bft) 100,00 %
19.01.2021 02:06 5,2 C 5,0 C 2,8 C 90 % 1017,2 hPa 0,0 l/m 0 min 0 min 0 W/m 11,3 km/h (2 Bft) 100,00 %
19.01.2021 02:04 5,2 C 5,0 C 2,8 C 90 % 1017,2 hPa 0,0 l/m 0 min 0 min 0 W/m 8,0 km/h (2 Bft) 100,00 %
19.01.2021 02:02 5,2 C 5,0 C 2,8 C 90 % 1017,2 hPa 0,0 l/m 0 min 0 min 0 W/m 3,2 km/h (1 Bft) 100,00 %
19.01.2021 02:00 5,2 C 5,0 C 2,8 C 90 % 1017,3 hPa 0,0 l/m 0 min 0 min 0 W/m 6,4 km/h (2 Bft) 100,00 %
19.01.2021 01:58 5,2 C 5,0 C 2,8 C 90 % 1017,3 hPa 0,0 l/m 0 min 0 min 0 W/m 3,2 km/h (1 Bft) 100,00 %
19.01.2021 01:56 5,2 C 5,0 C 2,8 C 90 % 1017,4 hPa 0,0 l/m 0 min 0 min 0 W/m 0,0 km/h (0 Bft) 100,00 %
19.01.2021 01:54 5,2 C 5,0 C 2,8 C 91 % 1017,3 hPa 0,0 l/m 0 min 0 min 0 W/m 17,7 km/h (3 Bft) 100,00 %
19.01.2021 01:52 5,2 C 5,0 C 2,8 C 91 % 1017,3 hPa 0,0 l/m 0 min 0 min 0 W/m 0,0 km/h (0 Bft) 100,00 %
19.01.2021 01:50 5,1 C 5,0 C 2,8 C 91 % 1017,4 hPa 0,0 l/m 0 min 0 min 0 W/m 9,7 km/h (2 Bft) 100,00 %
19.01.2021 01:48 5,1 C 4,4 C 2,8 C 91 % 1017,4 hPa 0,0 l/m 0 min 0 min 0 W/m 11,3 km/h (2 Bft) 100,00 %
19.01.2021 01:46 5,1 C 4,4 C 2,8 C 91 % 1017,4 hPa 0,0 l/m 0 min 0 min 0 W/m 1,6 km/h (1 Bft) 97,87 %
19.01.2021 01:44 5,1 C 4,4 C 2,8 C 91 % 1017,5 hPa 0,0 l/m 0 min 0 min 0 W/m 3,2 km/h (1 Bft) 100,00 %
19.01.2021 01:42 5,1 C 4,4 C 2,8 C 92 % 1017,5 hPa 0,0 l/m 0 min 0 min 0 W/m 11,3 km/h (2 Bft) 100,00 %
19.01.2021 01:40 5,1 C 4,4 C 2,8 C 92 % 1017,6 hPa 0,0 l/m 0 min 0 min 0 W/m 14,5 km/h (3 Bft) 97,87 %
19.01.2021 01:38 5,1 C 4,4 C 2,8 C 92 % 1017,6 hPa 0,0 l/m 0 min 0 min 0 W/m 22,5 km/h (4 Bft) 100,00 %
19.01.2021 01:36 5,1 C 4,4 C 2,8 C 92 % 1017,6 hPa 0,0 l/m 0 min 0 min 0 W/m 14,5 km/h (3 Bft) 100,00 %
19.01.2021 01:34 5,1 C 4,4 C 2,8 C 92 % 1017,6 hPa 0,0 l/m 0 min 0 min 0 W/m 17,7 km/h (3 Bft) 97,87 %
19.01.2021 01:32 5,0 C 4,4 C 2,8 C 93 % 1017,6 hPa 0,0 l/m 0 min 0 min 0 W/m 14,5 km/h (3 Bft) 100,00 %
19.01.2021 01:30 5,0 C 4,4 C 2,8 C 93 % 1017,8 hPa 0,0 l/m 0 min 0 min 0 W/m 11,3 km/h (2 Bft) 97,87 %
19.01.2021 01:28 5,0 C 4,4 C 2,8 C 93 % 1017,6 hPa 0,0 l/m 0 min 0 min 0 W/m 9,7 km/h (2 Bft) 52,27 %
19.01.2021 01:26 5,0 C 4,4 C 2,8 C 93 % 1017,7 hPa 0,0 l/m 0 min 0 min 0 W/m 14,5 km/h (3 Bft) 100,00 %
19.01.2021 01:24 5,0 C 4,4 C 2,8 C 93 % 1017,7 hPa 0,0 l/m 0 min 0 min 0 W/m 14,5 km/h (3 Bft) 97,87 %
19.01.2021 01:22 5,0 C 4,4 C 2,8 C 93 % 1017,8 hPa 0,0 l/m 0 min 0 min 0 W/m 16,1 km/h (3 Bft) 100,00 %
19.01.2021 01:20 5,0 C 4,4 C 2,8 C 94 % 1017,8 hPa 0,0 l/m 0 min 0 min 0 W/m 11,3 km/h (2 Bft) 100,00 %
19.01.2021 01:18 5,0 C 4,4 C 2,8 C 94 % 1017,9 hPa 0,0 l/m 0 min 0 min 0 W/m 19,3 km/h (3 Bft) 97,87 %
19.01.2021 01:16 5,0 C 4,4 C 2,8 C 94 % 1017,8 hPa 0,0 l/m 0 min 0 min 0 W/m 0,0 km/h (0 Bft) 100,00 %
19.01.2021 01:15 5,0 C 4,4 C 2,8 C 94 % 1017,8 hPa 0,0 l/m 0 min 0 min 0 W/m 14,5 km/h (3 Bft) 100,00 %
19.01.2021 01:12 5,0 C 4,4 C 2,8 C 94 % 1017,9 hPa 0,0 l/m 0 min 0 min 0 W/m 20,9 km/h (4 Bft) 100,00 %
19.01.2021 01:10 5,0 C 4,4 C 2,8 C 94 % 1017,8 hPa 0,0 l/m 0 min 0 min 0 W/m 0,0 km/h (0 Bft) 100,00 %
19.01.2021 01:08 5,0 C 3,9 C 2,8 C 94 % 1017,9 hPa 0,0 l/m 0 min 0 min 0 W/m 11,3 km/h (2 Bft) 97,87 %
19.01.2021 01:06 5,0 C 3,9 C 2,8 C 94 % 1018,1 hPa 0,0 l/m 0 min 0 min 0 W/m 11,3 km/h (2 Bft) 100,00 %
19.01.2021 01:04 5,0 C 3,9 C 2,8 C 94 % 1018,1 hPa 0,0 l/m 0 min 0 min 0 W/m 0,0 km/h (0 Bft) 100,00 %
19.01.2021 01:02 5,0 C 3,9 C 2,8 C 94 % 1018,1 hPa 0,0 l/m 0 min 0 min 0 W/m 1,6 km/h (1 Bft) 100,00 %
19.01.2021 01:00 5,0 C 3,9 C 2,8 C 94 % 1018,1 hPa 0,0 l/m 0 min 0 min 0 W/m 1,6 km/h (1 Bft) 100,00 %
19.01.2021 00:58 5,0 C 3,9 C 2,8 C 95 % 1018,2 hPa 0,0 l/m 0 min 0 min 0 W/m 1,6 km/h (1 Bft) 97,87 %
19.01.2021 00:56 5,0 C 3,9 C 2,8 C 95 % 1018,2 hPa 0,0 l/m 0 min 0 min 0 W/m 0,0 km/h (0 Bft) 97,87 %
19.01.2021 00:54 5,0 C 3,9 C 2,8 C 95 % 1018,2 hPa 0,0 l/m 0 min 0 min 0 W/m 0,0 km/h (0 Bft) 100,00 %
19.01.2021 00:52 5,0 C 3,9 C 2,8 C 95 % 1018,2 hPa 0,0 l/m 0 min 2 min 0 W/m 1,6 km/h (1 Bft) 100,00 %
19.01.2021 00:50 4,9 C 3,9 C 2,8 C 95 % 1018,3 hPa 0,0 l/m 0 min 2 min 0 W/m 8,0 km/h (2 Bft) 97,83 %
19.01.2021 00:48 4,9 C 3,9 C 2,8 C 95 % 1018,3 hPa 0,0 l/m 0 min 2 min 0 W/m 6,4 km/h (2 Bft) 95,74 %
19.01.2021 00:46 4,9 C 3,9 C 2,8 C 95 % 1018,4 hPa 0,0 l/m 0 min 2 min 0 W/m 4,8 km/h (1 Bft) 100,00 %
19.01.2021 00:44 4,9 C 3,9 C 2,8 C 95 % 1018,4 hPa 0,0 l/m 0 min 0 min 0 W/m 3,2 km/h (1 Bft) 100,00 %
19.01.2021 00:42 4,9 C 3,9 C 2,8 C 95 % 1018,4 hPa 0,0 l/m 0 min 0 min 0 W/m 0,0 km/h (0 Bft) 97,87 %
19.01.2021 00:40 4,9 C 3,9 C 2,8 C 95 % 1018,4 hPa 0,0 l/m 0 min 0 min 0 W/m 6,4 km/h (2 Bft) 93,48 %
19.01.2021 00:38 4,9 C 3,9 C 2,8 C 95 % 1018,5 hPa 0,0 l/m 0 min 0 min 0 W/m 1,6 km/h (1 Bft) 97,87 %
19.01.2021 00:36 4,9 C 3,9 C 2,8 C 95 % 1018,5 hPa 0,0 l/m 0 min 0 min 0 W/m 0,0 km/h (0 Bft) 95,74 %
19.01.2021 00:34 4,9 C 3,9 C 2,8 C 95 % 1018,5 hPa 0,0 l/m 0 min 0 min 0 W/m 1,6 km/h (1 Bft) 93,62 %
19.01.2021 00:32 4,9 C 3,9 C 2,8 C 95 % 1018,7 hPa 0,0 l/m 0 min 0 min 0 W/m 8,0 km/h (2 Bft) 95,74 %
19.01.2021 00:30 5,0 C 3,9 C 2,8 C 95 % 1018,5 hPa 0,0 l/m 0 min 0 min 0 W/m 0,0 km/h (0 Bft) 95,45 %
19.01.2021 00:28 5,0 C 3,9 C 2,8 C 95 % 1018,6 hPa 0,0 l/m 0 min 0 min 0 W/m 11,3 km/h (2 Bft) 93,48 %
19.01.2021 00:26 5,0 C 3,9 C 2,8 C 95 % 1018,7 hPa 0,0 l/m 0 min 0 min 0 W/m 1,6 km/h (1 Bft) 93,62 %
19.01.2021 00:24 5,0 C 3,9 C 2,8 C 95 % 1018,7 hPa 0,0 l/m 0 min 0 min 0 W/m 12,9 km/h (3 Bft) 91,49 %
19.01.2021 00:22 5,0 C 3,9 C 2,8 C 95 % 1018,7 hPa 0,0 l/m 0 min 0 min 0 W/m 12,9 km/h (3 Bft) 93,62 %
19.01.2021 00:20 5,0 C 3,9 C 2,3 C 95 % 1018,8 hPa 0,0 l/m 0 min 0 min 0 W/m 0,0 km/h (0 Bft) 93,62 %
19.01.2021 00:18 5,0 C 3,9 C 2,3 C 95 % 1018,8 hPa 0,0 l/m 0 min 2 min 0 W/m 0,0 km/h (0 Bft) 95,74 %
19.01.2021 00:16 5,0 C 3,9 C 2,3 C 95 % 1018,9 hPa 0,0 l/m 0 min 2 min 0 W/m 0,0 km/h (0 Bft) 95,65 %
19.01.2021 00:14 5,0 C 3,9 C 2,3 C 95 % 1018,8 hPa 0,0 l/m 0 min 0 min 0 W/m 0,0 km/h (0 Bft) 95,74 %
19.01.2021 00:12 5,0 C 3,9 C 2,3 C 95 % 1018,9 hPa 0,0 l/m 0 min 0 min 0 W/m 12,9 km/h (3 Bft) 93,62 %
19.01.2021 00:10 5,0 C 3,9 C 2,3 C 95 % 1018,8 hPa 0,0 l/m 0 min 0 min 0 W/m 11,3 km/h (2 Bft) 93,62 %
19.01.2021 00:08 5,0 C 3,9 C 2,3 C 95 % 1018,8 hPa 0,0 l/m 0 min 4 min 0 W/m 4,8 km/h (1 Bft) 92,71 %
19.01.2021 00:04 5,0 C 3,9 C 2,3 C 95 % 1018,9 hPa 0,2 l/m 0 min 2 min 0 W/m 1,6 km/h (1 Bft) 93,48 %
19.01.2021 00:02 5,0 C 3,9 C 2,3 C 94 % 1018,9 hPa 0,0 l/m 0 min 2 min 0 W/m 0,0 km/h (0 Bft) 90,24 %
19.01.2021 00:00 5,0 C 3,9 C 2,3 C 94 % 1019,0 hPa 0,0 l/m 0 min 2 min 0 W/m 12,9 km/h (3 Bft) 93,62 %
18.01.2021 23:58 5,0 C 3,9 C 2,3 C 94 % 1018,9 hPa 0,0 l/m 0 min 2 min 0 W/m 1,6 km/h (1 Bft) 93,62 %
18.01.2021 23:56 5,0 C 3,9 C 2,3 C 94 % 1019,0 hPa 0,0 l/m 0 min 0 min 0 W/m 14,5 km/h (3 Bft) 93,62 %
18.01.2021 23:54 5,0 C 3,9 C 2,8 C 95 % 1019,0 hPa 0,0 l/m 0 min 2 min 0 W/m 1,6 km/h (1 Bft) 93,62 %
18.01.2021 23:52 5,1 C 3,9 C 2,8 C 95 % 1019,1 hPa 0,0 l/m 0 min 2 min 0 W/m 1,6 km/h (1 Bft) 93,48 %
18.01.2021 23:50 5,1 C 3,9 C 2,8 C 94 % 1019,1 hPa 0,0 l/m 0 min 2 min 0 W/m 16,1 km/h (3 Bft) 93,62 %
18.01.2021 23:48 5,1 C 3,9 C 2,8 C 94 % 1019,1 hPa 0,0 l/m 0 min 2 min 0 W/m 6,4 km/h (2 Bft) 95,74 %
18.01.2021 23:46 5,1 C 3,9 C 2,8 C 94 % 1019,2 hPa 0,0 l/m 0 min 2 min 0 W/m 12,9 km/h (3 Bft) 95,74 %
18.01.2021 23:44 5,1 C 3,9 C 2,8 C 94 % 1019,1 hPa 0,0 l/m 0 min 2 min 0 W/m 16,1 km/h (3 Bft) 95,74 %
18.01.2021 23:42 5,1 C 3,9 C 2,8 C 94 % 1019,1 hPa 0,0 l/m 0 min 2 min 0 W/m 0,0 km/h (0 Bft) 93,62 %
18.01.2021 23:40 5,1 C 3,9 C 2,8 C 94 % 1019,2 hPa 0,0 l/m 0 min 2 min 0 W/m 1,6 km/h (1 Bft) 95,65 %
18.01.2021 23:38 5,1 C 3,9 C 2,8 C 94 % 1019,2 hPa 0,0 l/m 0 min 2 min 0 W/m 1,6 km/h (1 Bft) 97,92 %
18.01.2021 23:36 5,1 C 3,9 C 2,8 C 94 % 1019,2 hPa 0,0 l/m 0 min 2 min 0 W/m 8,0 km/h (2 Bft) 95,74 %
18.01.2021 23:34 5,1 C 3,9 C 2,8 C 94 % 1019,2 hPa 0,0 l/m 0 min 2 min 0 W/m 3,2 km/h (1 Bft) 97,87 %
18.01.2021 23:32 5,1 C 3,9 C 2,8 C 94 % 1019,2 hPa 0,0 l/m 0 min 2 min 0 W/m 12,9 km/h (3 Bft) 97,92 %
18.01.2021 23:30 5,1 C 3,9 C 2,8 C 94 % 1019,2 hPa 0,0 l/m 0 min 0 min 0 W/m 12,9 km/h (3 Bft) 97,87 %
18.01.2021 23:28 5,2 C 3,9 C 2,8 C 94 % 1019,2 hPa 0,2 l/m 0 min 2 min 0 W/m 19,3 km/h (3 Bft) 97,83 %
18.01.2021 23:26 5,2 C 3,9 C 2,8 C 94 % 1019,2 hPa 0,0 l/m 0 min 2 min 0 W/m 9,7 km/h (2 Bft) 97,87 %
18.01.2021 23:24 5,2 C 3,9 C 2,8 C 94 % 1019,2 hPa 0,0 l/m 0 min 2 min 0 W/m 16,1 km/h (3 Bft) 93,62 %
18.01.2021 23:22 5,2 C 3,9 C 2,8 C 94 % 1019,3 hPa 0,0 l/m 0 min 2 min 0 W/m 11,3 km/h (2 Bft) 97,87 %
18.01.2021 23:20 5,2 C 3,9 C 2,8 C 94 % 1019,3 hPa 0,0 l/m 0 min 2 min 0 W/m 0,0 km/h (0 Bft) 97,87 %
18.01.2021 23:18 5,2 C 3,9 C 2,8 C 94 % 1019,3 hPa 0,0 l/m 0 min 2 min 0 W/m 1,6 km/h (1 Bft) 95,74 %
18.01.2021 23:16 5,2 C 4,4 C 2,8 C 94 % 1019,4 hPa 0,0 l/m 0 min 2 min 0 W/m 14,5 km/h (3 Bft) 97,83 %
18.01.2021 23:14 5,2 C 4,4 C 2,8 C 94 % 1019,3 hPa 0,0 l/m 0 min 2 min 0 W/m 9,7 km/h (2 Bft) 97,87 %
18.01.2021 23:12 5,1 C 4,4 C 3,4 C 94 % 1019,3 hPa 0,0 l/m 0 min 0 min 0 W/m 4,8 km/h (1 Bft) 97,87 %
18.01.2021 23:10 5,1 C 4,4 C 3,4 C 94 % 1019,4 hPa 0,0 l/m 0 min 0 min 0 W/m 17,7 km/h (3 Bft) 97,87 %
18.01.2021 23:08 5,1 C 4,4 C 3,4 C 94 % 1019,3 hPa 0,0 l/m 0 min 0 min 0 W/m 1,6 km/h (1 Bft) 95,74 %
18.01.2021 23:06 5,1 C 4,4 C 3,4 C 94 % 1019,2 hPa 0,0 l/m 0 min 0 min 0 W/m 0,0 km/h (0 Bft) 97,83 %
18.01.2021 23:04 5,1 C 4,4 C 3,4 C 94 % 1019,3 hPa 0,0 l/m 0 min 0 min 0 W/m 1,6 km/h (1 Bft) 97,87 %
18.01.2021 23:02 5,1 C 4,4 C 3,4 C 94 % 1019,3 hPa 0,0 l/m 0 min 0 min 0 W/m 3,2 km/h (1 Bft) 95,74 %
18.01.2021 23:00 5,1 C 4,4 C 3,4 C 94 % 1019,3 hPa 0,0 l/m 0 min 0 min 0 W/m 8,0 km/h (2 Bft) 97,87 %
18.01.2021 22:58 5,1 C 5,0 C 3,4 C 94 % 1019,3 hPa 0,0 l/m 0 min 0 min 0 W/m 20,9 km/h (4 Bft) 97,87 %
18.01.2021 22:56 5,1 C 4,4 C 2,8 C 94 % 1019,3 hPa 0,0 l/m 0 min 0 min 0 W/m 1,6 km/h (1 Bft) 97,87 %
18.01.2021 22:54 5,1 C 4,4 C 2,8 C 94 % 1019,3 hPa 0,0 l/m 0 min 0 min 0 W/m 12,9 km/h (3 Bft) 95,65 %
18.01.2021 22:52 5,1 C 4,4 C 2,8 C 94 % 1019,4 hPa 0,0 l/m 0 min 0 min 0 W/m 19,3 km/h (3 Bft) 95,74 %
18.01.2021 22:50 5,1 C 4,4 C 2,8 C 94 % 1019,5 hPa 0,0 l/m 0 min 0 min 0 W/m 11,3 km/h (2 Bft) 95,74 %
18.01.2021 22:48 5,1 C 4,4 C 2,8 C 94 % 1019,6 hPa 0,0 l/m 0 min 0 min 0 W/m 9,7 km/h (2 Bft) 97,87 %
18.01.2021 22:46 5,1 C 4,4 C 2,8 C 94 % 1019,5 hPa 0,0 l/m 0 min 0 min 0 W/m 11,3 km/h (2 Bft) 97,87 %
18.01.2021 22:44 5,1 C 4,4 C 2,8 C 94 % 1019,5 hPa 0,0 l/m 0 min 0 min 0 W/m 1,6 km/h (1 Bft) 97,87 %
18.01.2021 22:42 5,1 C 4,4 C 2,8 C 94 % 1019,5 hPa 0,0 l/m 0 min 0 min 0 W/m 1,6 km/h (1 Bft) 97,83 %
18.01.2021 22:40 5,1 C 4,4 C 2,8 C 94 % 1019,5 hPa 0,0 l/m 0 min 0 min 0 W/m 12,9 km/h (3 Bft) 97,87 %
18.01.2021 22:38 5,1 C 4,4 C 2,8 C 94 % 1019,5 hPa 0,0 l/m 0 min 0 min 0 W/m 3,2 km/h (1 Bft) 100,00 %
18.01.2021 22:36 5,1 C 4,4 C 2,8 C 94 % 1019,4 hPa 0,0 l/m 0 min 2 min 0 W/m 1,6 km/h (1 Bft) 93,62 %
18.01.2021 22:34 5,1 C 4,4 C 2,8 C 94 % 1019,5 hPa 0,0 l/m 0 min 2 min 0 W/m 11,3 km/h (2 Bft) 100,00 %
18.01.2021 22:32 5,1 C 4,4 C 3,4 C 94 % 1019,6 hPa 0,0 l/m 0 min 0 min 0 W/m 1,6 km/h (1 Bft) 100,00 %
18.01.2021 22:30 5,1 C 4,4 C 3,4 C 94 % 1019,6 hPa 0,0 l/m 0 min 0 min 0 W/m 11,3 km/h (2 Bft) 100,00 %
18.01.2021 22:28 5,0 C 4,4 C 3,4 C 94 % 1019,6 hPa 0,0 l/m 0 min 0 min 0 W/m 0,0 km/h (0 Bft) 100,00 %
18.01.2021 22:26 5,0 C 4,4 C 3,4 C 94 % 1019,7 hPa 0,0 l/m 0 min 0 min 0 W/m 9,7 km/h (2 Bft) 100,00 %
18.01.2021 22:24 5,0 C 4,4 C 3,4 C 94 % 1019,7 hPa 0,0 l/m 0 min 0 min 0 W/m 3,2 km/h (1 Bft) 97,87 %
18.01.2021 22:22 5,0 C 4,4 C 3,4 C 94 % 1019,7 hPa 0,0 l/m 0 min 0 min 0 W/m 1,6 km/h (1 Bft) 100,00 %
18.01.2021 22:20 5,0 C 4,4 C 3,4 C 94 % 1019,7 hPa 0,0 l/m 0 min 0 min 0 W/m 17,7 km/h (3 Bft) 100,00 %
18.01.2021 22:18 5,0 C 4,4 C 3,4 C 95 % 1019,8 hPa 0,0 l/m 0 min 0 min 0 W/m 12,9 km/h (3 Bft) 97,83 %
18.01.2021 22:16 5,0 C 4,4 C 3,4 C 94 % 1019,9 hPa 0,0 l/m 0 min 0 min 0 W/m 1,6 km/h (1 Bft) 100,00 %
18.01.2021 22:14 5,0 C 4,4 C 2,8 C 94 % 1019,9 hPa 0,0 l/m 0 min 0 min 0 W/m 8,0 km/h (2 Bft) 100,00 %
18.01.2021 22:12 5,0 C 4,4 C 2,8 C 94 % 1019,9 hPa 0,0 l/m 0 min 0 min 0 W/m 3,2 km/h (1 Bft) 100,00 %
18.01.2021 22:10 5,0 C 4,4 C 2,8 C 94 % 1019,8 hPa 0,0 l/m 0 min 0 min 0 W/m 3,2 km/h (1 Bft) 100,00 %
18.01.2021 22:08 5,0 C 4,4 C 2,8 C 94 % 1019,9 hPa 0,0 l/m 0 min 0 min 0 W/m 11,3 km/h (2 Bft) 100,00 %
18.01.2021 22:06 4,9 C 4,4 C 2,8 C 94 % 1019,9 hPa 0,0 l/m 0 min 0 min 0 W/m 11,3 km/h (2 Bft) 97,83 %
18.01.2021 22:04 4,9 C 4,4 C 2,8 C 94 % 1019,9 hPa 0,0 l/m 0 min 0 min 0 W/m 0,0 km/h (0 Bft) 97,87 %
18.01.2021 22:02 4,9 C 4,4 C 2,8 C 94 % 1019,9 hPa 0,0 l/m 0 min 0 min 0 W/m 1,6 km/h (1 Bft) 97,87 %
18.01.2021 22:00 4,9 C 4,4 C 2,8 C 94 % 1019,8 hPa 0,0 l/m 0 min 0 min 0 W/m 3,2 km/h (1 Bft) 95,74 %
18.01.2021 21:58 4,9 C 4,4 C 2,8 C 94 % 1019,8 hPa 0,0 l/m 0 min 0 min 0 W/m 1,6 km/h (1 Bft) 100,00 %
18.01.2021 21:56 4,9 C 4,4 C 2,8 C 94 % 1019,8 hPa 0,0 l/m 0 min 0 min 0 W/m 6,4 km/h (2 Bft) 100,00 %
18.01.2021 21:54 4,9 C 4,4 C 2,8 C 94 % 1019,8 hPa 0,0 l/m 0 min 0 min 0 W/m 0,0 km/h (0 Bft) 97,83 %
18.01.2021 21:52 4,9 C 4,4 C 2,8 C 94 % 1019,9 hPa 0,0 l/m 0 min 0 min 0 W/m 1,6 km/h (1 Bft) 97,87 %
18.01.2021 21:50 4,9 C 4,4 C 2,8 C 94 % 1019,9 hPa 0,0 l/m 0 min 0 min 0 W/m 0,0 km/h (0 Bft) 97,87 %
18.01.2021 21:48 4,9 C 4,4 C 2,8 C 94 % 1019,8 hPa 0,0 l/m 0 min 0 min 0 W/m 0,0 km/h (0 Bft) 95,74 %
18.01.2021 21:46 4,9 C 4,4 C 2,8 C 94 % 1019,8 hPa 0,0 l/m 0 min 0 min 0 W/m 9,7 km/h (2 Bft) 97,87 %
18.01.2021 21:44 4,9 C 4,4 C 2,8 C 94 % 1019,8 hPa 0,0 l/m 0 min 0 min 0 W/m 1,6 km/h (1 Bft) 97,83 %
18.01.2021 21:42 4,9 C 4,4 C 2,8 C 94 % 1019,8 hPa 0,0 l/m 0 min 0 min 0 W/m 0,0 km/h (0 Bft) 97,87 %
18.01.2021 21:40 4,9 C 4,4 C 2,8 C 94 % 1019,8 hPa 0,0 l/m 0 min 0 min 0 W/m 0,0 km/h (0 Bft) 97,87 %
18.01.2021 21:38 4,9 C 4,4 C 2,8 C 94 % 1019,8 hPa 0,0 l/m 0 min 0 min 0 W/m 1,6 km/h (1 Bft) 97,87 %
18.01.2021 21:36 4,9 C 4,4 C 2,8 C 94 % 1019,8 hPa 0,0 l/m 0 min 0 min 0 W/m 1,6 km/h (1 Bft) 97,87 %
18.01.2021 21:34 4,9 C 4,4 C 2,3 C 94 % 1019,7 hPa 0,0 l/m 0 min 0 min 0 W/m 1,6 km/h (1 Bft) 93,62 %
18.01.2021 21:32 4,9 C 4,4 C 2,3 C 94 % 1019,8 hPa 0,0 l/m 0 min 0 min 0 W/m 1,6 km/h (1 Bft) 91,30 %
18.01.2021 21:30 4,9 C 4,4 C 2,3 C 94 % 1019,9 hPa 0,0 l/m 0 min 2 min 0 W/m 1,6 km/h (1 Bft) 93,62 %
18.01.2021 21:28 4,9 C 4,4 C 2,3 C 94 % 1019,9 hPa 0,0 l/m 0 min 0 min 0 W/m 0,0 km/h (0 Bft) 95,74 %
18.01.2021 21:26 4,9 C 4,4 C 2,3 C 94 % 1019,9 hPa 0,0 l/m 0 min 0 min 0 W/m 1,6 km/h (1 Bft) 95,74 %
18.01.2021 21:24 4,9 C 3,9 C 2,3 C 94 % 1019,9 hPa 0,0 l/m 0 min 0 min 0 W/m 0,0 km/h (0 Bft) 93,62 %
18.01.2021 21:22 5,0 C 3,9 C 2,3 C 94 % 1019,9 hPa 0,0 l/m 0 min 0 min 0 W/m 1,6 km/h (1 Bft) 95,74 %
18.01.2021 21:20 5,0 C 3,9 C 2,3 C 94 % 1020,0 hPa 0,0 l/m 0 min 0 min 0 W/m 1,6 km/h (1 Bft) 95,65 %
18.01.2021 21:18 5,0 C 3,9 C 2,3 C 94 % 1019,9 hPa 0,0 l/m 0 min 0 min 0 W/m 1,6 km/h (1 Bft) 93,62 %
18.01.2021 21:16 5,0 C 3,9 C 2,3 C 94 % 1019,9 hPa 0,0 l/m 0 min 0 min 0 W/m 0,0 km/h (0 Bft) 95,74 %
18.01.2021 21:14 5,0 C 3,9 C 2,3 C 94 % 1020,0 hPa 0,0 l/m 0 min 0 min 0 W/m 0,0 km/h (0 Bft) 93,62 %
18.01.2021 21:12 5,0 C 3,9 C 2,3 C 94 % 1020,0 hPa 0,0 l/m 0 min 0 min 0 W/m 12,9 km/h (3 Bft) 97,87 %
18.01.2021 21:10 5,0 C 3,9 C 2,3 C 94 % 1020,0 hPa 0,0 l/m 0 min 0 min 0 W/m 17,7 km/h (3 Bft) 97,87 %
18.01.2021 21:08 5,0 C 3,9 C 2,3 C 94 % 1020,1 hPa 0,0 l/m 0 min 2 min 0 W/m 22,5 km/h (4 Bft) 97,83 %
18.01.2021 21:06 5,0 C 3,9 C 2,3 C 94 % 1020,1 hPa 0,0 l/m 0 min 2 min 0 W/m 11,3 km/h (2 Bft) 95,74 %
18.01.2021 21:04 5,0 C 3,9 C 2,3 C 94 % 1020,1 hPa 0,0 l/m 0 min 0 min 0 W/m 3,2 km/h (1 Bft) 97,87 %
18.01.2021 21:02 5,0 C 3,9 C 2,3 C 94 % 1020,1 hPa 0,0 l/m 0 min 0 min 0 W/m 8,0 km/h (2 Bft) 97,87 %
18.01.2021 21:00 5,0 C 3,9 C 2,3 C 94 % 1020,2 hPa 0,0 l/m 0 min 0 min 0 W/m 12,9 km/h (3 Bft) 97,87 %
18.01.2021 20:58 5,0 C 3,9 C 2,3 C 94 % 1020,2 hPa 0,0 l/m 0 min 0 min 0 W/m 3,2 km/h (1 Bft) 95,74 %
18.01.2021 20:56 5,0 C 3,9 C 2,3 C 94 % 1020,3 hPa 0,0 l/m 0 min 0 min 0 W/m 6,4 km/h (2 Bft) 95,65 %
18.01.2021 20:54 5,0 C 3,9 C 2,3 C 94 % 1020,3 hPa 0,0 l/m 0 min 0 min 0 W/m 6,4 km/h (2 Bft) 97,87 %
18.01.2021 20:52 5,0 C 3,9 C 2,8 C 94 % 1020,3 hPa 0,0 l/m 0 min 0 min 0 W/m 11,3 km/h (2 Bft) 97,87 %
18.01.2021 20:50 5,0 C 4,4 C 2,8 C 94 % 1020,4 hPa 0,0 l/m 0 min 0 min 0 W/m 12,9 km/h (3 Bft) 97,87 %
18.01.2021 20:48 5,0 C 4,4 C 2,8 C 94 % 1020,4 hPa 0,0 l/m 0 min 0 min 0 W/m 9,7 km/h (2 Bft) 95,74 %
18.01.2021 20:46 5,0 C 4,4 C 2,8 C 94 % 1020,5 hPa 0,0 l/m 0 min 0 min 0 W/m 14,5 km/h (3 Bft) 97,87 %
18.01.2021 20:44 5,0 C 4,4 C 2,8 C 93 % 1020,5 hPa 0,0 l/m 0 min 0 min 0 W/m 0,0 km/h (0 Bft) 97,83 %
18.01.2021 20:42 5,1 C 4,4 C 2,8 C 93 % 1020,4 hPa 0,0 l/m 0 min 0 min 0 W/m 11,3 km/h (2 Bft) 97,87 %
18.01.2021 20:40 5,0 C 4,4 C 2,8 C 93 % 1020,5 hPa 0,0 l/m 0 min 2 min 0 W/m 11,3 km/h (2 Bft) 97,87 %
18.01.2021 20:38 5,1 C 4,4 C 2,8 C 93 % 1020,5 hPa 0,0 l/m 0 min 2 min 0 W/m 9,7 km/h (2 Bft) 100,00 %
18.01.2021 20:36 5,1 C 4,4 C 2,8 C 93 % 1020,5 hPa 0,0 l/m 0 min 0 min 0 W/m 6,4 km/h (2 Bft) 100,00 %
18.01.2021 20:34 5,1 C 4,4 C 2,8 C 93 % 1020,5 hPa 0,0 l/m 0 min 0 min 0 W/m 3,2 km/h (1 Bft) 100,00 %
18.01.2021 20:32 5,1 C 4,4 C 2,8 C 94 % 1020,5 hPa 0,0 l/m 0 min 2 min 0 W/m 1,6 km/h (1 Bft) 100,00 %
18.01.2021 20:30 5,1 C 4,4 C 2,8 C 94 % 1020,5 hPa 0,0 l/m 0 min 0 min 0 W/m 12,9 km/h (3 Bft) 100,00 %
18.01.2021 20:27 5,1 C 4,4 C 2,8 C 93 % 1020,6 hPa 0,0 l/m 0 min 0 min 0 W/m 0,0 km/h (0 Bft) 100,00 %
18.01.2021 20:26 5,1 C 4,4 C 2,8 C 93 % 1020,5 hPa 0,0 l/m 0 min 0 min 0 W/m 3,2 km/h (1 Bft) 100,00 %
18.01.2021 20:24 5,1 C 4,4 C 2,8 C 93 % 1020,5 hPa 0,0 l/m 0 min 0 min 0 W/m 0,0 km/h (0 Bft) 100,00 %
18.01.2021 20:22 5,1 C 4,4 C 2,8 C 93 % 1020,5 hPa 0,0 l/m 0 min 0 min 0 W/m 0,0 km/h (0 Bft) 100,00 %
18.01.2021 20:20 5,1 C 4,4 C 2,8 C 93 % 1020,5 hPa 0,0 l/m 0 min 0 min 0 W/m 3,2 km/h (1 Bft) 100,00 %
18.01.2021 20:18 5,1 C 4,4 C 2,8 C 94 % 1020,5 hPa 0,0 l/m 0 min 2 min 0 W/m 14,5 km/h (3 Bft) 100,00 %
18.01.2021 20:16 5,1 C 4,4 C 2,8 C 94 % 1020,5 hPa 0,0 l/m 0 min 0 min 0 W/m 0,0 km/h (0 Bft) 100,00 %
18.01.2021 20:14 5,1 C 4,4 C 2,8 C 94 % 1020,5 hPa 0,0 l/m 0 min 0 min 0 W/m 0,0 km/h (0 Bft) 100,00 %
18.01.2021 20:12 5,1 C 4,4 C 2,8 C 94 % 1020,6 hPa 0,0 l/m 0 min 0 min 0 W/m 1,6 km/h (1 Bft) 100,00 %
18.01.2021 20:10 5,1 C 4,4 C 2,8 C 94 % 1020,7 hPa 0,0 l/m 0 min 0 min 0 W/m 14,5 km/h (3 Bft) 100,00 %
18.01.2021 20:08 5,1 C 4,4 C 2,8 C 94 % 1020,7 hPa 0,0 l/m 0 min 0 min 0 W/m 6,4 km/h (2 Bft) 100,00 %
18.01.2021 20:06 5,1 C 4,4 C 2,8 C 94 % 1020,7 hPa 0,0 l/m 0 min 0 min 0 W/m 11,3 km/h (2 Bft) 100,00 %
18.01.2021 20:04 5,1 C 4,4 C 2,8 C 94 % 1020,7 hPa 0,0 l/m 0 min 2 min 0 W/m 14,5 km/h (3 Bft) 100,00 %
18.01.2021 20:02 5,1 C 4,4 C 2,8 C 94 % 1020,6 hPa 0,0 l/m 0 min 0 min 0 W/m 8,0 km/h (2 Bft) 97,87 %
18.01.2021 20:00 5,1 C 4,4 C 2,8 C 93 % 1020,7 hPa 0,0 l/m 0 min 0 min 0 W/m 3,2 km/h (1 Bft) 100,00 %
18.01.2021 19:58 5,1 C 4,4 C 2,8 C 93 % 1020,6 hPa 0,0 l/m 0 min 0 min 0 W/m 0,0 km/h (0 Bft) 100,00 %
18.01.2021 19:56 5,1 C 4,4 C 2,8 C 93 % 1020,7 hPa 0,0 l/m 0 min 0 min 0 W/m 8,0 km/h (2 Bft) 100,00 %
18.01.2021 19:54 5,1 C 4,4 C 2,8 C 93 % 1020,7 hPa 0,0 l/m 0 min 0 min 0 W/m 6,4 km/h (2 Bft) 100,00 %
18.01.2021 19:52 5,1 C 4,4 C 2,3 C 93 % 1020,8 hPa 0,0 l/m 0 min 0 min 0 W/m 0,0 km/h (0 Bft) 100,00 %
18.01.2021 19:50 5,1 C 4,4 C 2,3 C 93 % 1020,8 hPa 0,0 l/m 0 min 1 min 0 W/m 11,3 km/h (2 Bft) 100,00 %
18.01.2021 19:49 5,1 C 4,4 C 2,3 C 93 % 1020,8 hPa 0,0 l/m 0 min 0 min 0 W/m 14,5 km/h (3 Bft) 100,00 %
18.01.2021 19:44 5,2 C 4,4 C 2,8 C 93 % 1020,7 hPa 0,0 l/m 0 min 2 min 0 W/m 20,9 km/h (4 Bft) 95,74 %
18.01.2021 19:42 5,2 C 4,4 C 2,8 C 93 % 1020,8 hPa 0,0 l/m 0 min 2 min 0 W/m 17,7 km/h (3 Bft) 97,87 %
18.01.2021 19:40 5,2 C 4,4 C 2,8 C 93 % 1020,7 hPa 0,0 l/m 0 min 2 min 0 W/m 16,1 km/h (3 Bft) 100,00 %
18.01.2021 19:38 5,2 C 4,4 C 2,8 C 93 % 1020,8 hPa 0,0 l/m 0 min 2 min 0 W/m 19,3 km/h (3 Bft) 100,00 %
18.01.2021 19:36 5,2 C 4,4 C 2,8 C 93 % 1020,8 hPa 0,0 l/m 0 min 0 min 0 W/m 12,9 km/h (3 Bft) 100,00 %
18.01.2021 19:34 5,2 C 4,4 C 2,3 C 93 % 1020,7 hPa 0,0 l/m 0 min 2 min 0 W/m 14,5 km/h (3 Bft) 100,00 %
18.01.2021 19:32 5,2 C 4,4 C 2,3 C 93 % 1020,7 hPa 0,0 l/m 0 min 2 min 0 W/m 19,3 km/h (3 Bft) 100,00 %
18.01.2021 19:30 5,3 C 4,4 C 2,8 C 93 % 1020,7 hPa 0,0 l/m 0 min 2 min 0 W/m 16,1 km/h (3 Bft) 100,00 %
18.01.2021 19:28 5,2 C 4,4 C 2,8 C 93 % 1020,7 hPa 0,0 l/m 0 min 0 min 0 W/m 8,0 km/h (2 Bft) 97,87 %
18.01.2021 19:26 5,2 C 4,4 C 2,8 C 93 % 1020,8 hPa 0,0 l/m 0 min 0 min 0 W/m 11,3 km/h (2 Bft) 97,87 %
18.01.2021 19:24 5,3 C 4,4 C 2,8 C 93 % 1020,8 hPa 0,0 l/m 0 min 0 min 0 W/m 8,0 km/h (2 Bft) 100,00 %
18.01.2021 19:22 5,3 C 4,4 C 2,8 C 93 % 1020,7 hPa 0,0 l/m 0 min 2 min 0 W/m 3,2 km/h (1 Bft) 100,00 %
18.01.2021 19:20 5,3 C 4,4 C 2,8 C 93 % 1020,8 hPa 0,0 l/m 0 min 0 min 0 W/m 14,5 km/h (3 Bft) 100,00 %
18.01.2021 19:18 5,3 C 4,4 C 2,8 C 93 % 1020,7 hPa 0,0 l/m 0 min 0 min 0 W/m 1,6 km/h (1 Bft) 100,00 %
18.01.2021 19:16 5,3 C 4,4 C 2,8 C 93 % 1020,7 hPa 0,0 l/m 0 min 0 min 0 W/m 3,2 km/h (1 Bft) 100,00 %
18.01.2021 19:14 5,3 C 4,4 C 2,8 C 93 % 1020,7 hPa 0,0 l/m 0 min 2 min 0 W/m 0,0 km/h (0 Bft) 97,87 %
18.01.2021 19:12 5,3 C 4,4 C 2,8 C 93 % 1020,7 hPa 0,0 l/m 0 min 0 min 0 W/m 11,3 km/h (2 Bft) 97,83 %
18.01.2021 19:10 5,3 C 4,4 C 2,8 C 93 % 1020,7 hPa 0,0 l/m 0 min 0 min 0 W/m 1,6 km/h (1 Bft) 97,87 %
18.01.2021 19:08 5,3 C 4,4 C 2,8 C 93 % 1020,7 hPa 0,0 l/m 0 min 2 min 0 W/m 8,0 km/h (2 Bft) 97,87 %
18.01.2021 19:06 5,3 C 4,4 C 2,8 C 93 % 1020,7 hPa 0,0 l/m 0 min 0 min 0 W/m 0,0 km/h (0 Bft) 95,74 %
18.01.2021 19:04 5,3 C 4,4 C 2,8 C 93 % 1020,8 hPa 0,0 l/m 0 min 0 min 0 W/m 3,2 km/h (1 Bft) 97,87 %
18.01.2021 19:02 5,3 C 4,4 C 2,8 C 93 % 1020,7 hPa 0,0 l/m 0 min 0 min 0 W/m 6,4 km/h (2 Bft) 97,87 %
18.01.2021 19:00 5,3 C 4,4 C 2,8 C 93 % 1020,6 hPa 0,0 l/m 0 min 0 min 0 W/m 0,0 km/h (0 Bft) 97,83 %
18.01.2021 18:58 5,3 C 4,4 C 2,8 C 93 % 1020,7 hPa 0,0 l/m 0 min 0 min 0 W/m 1,6 km/h (1 Bft) 97,87 %
18.01.2021 18:56 5,3 C 4,4 C 2,8 C 93 % 1020,7 hPa 0,0 l/m 0 min 0 min 0 W/m 14,5 km/h (3 Bft) 97,87 %
18.01.2021 18:54 5,3 C 4,4 C 2,8 C 93 % 1020,7 hPa 0,0 l/m 0 min 0 min 0 W/m 6,4 km/h (2 Bft) 95,74 %
18.01.2021 18:52 5,3 C 4,4 C 2,8 C 93 % 1020,7 hPa 0,0 l/m 0 min 0 min 0 W/m 14,5 km/h (3 Bft) 95,74 %
18.01.2021 18:50 5,3 C 4,4 C 2,8 C 93 % 1020,7 hPa 0,0 l/m 0 min 0 min 0 W/m 0,0 km/h (0 Bft) 97,87 %
18.01.2021 18:48 5,4 C 4,4 C 2,8 C 92 % 1020,7 hPa 0,0 l/m 0 min 2 min 0 W/m 1,6 km/h (1 Bft) 95,65 %
18.01.2021 18:46 5,4 C 5,0 C 2,8 C 92 % 1020,7 hPa 0,0 l/m 0 min 0 min 0 W/m 6,4 km/h (2 Bft) 97,87 %
18.01.2021 18:44 5,4 C 4,4 C 2,8 C 92 % 1020,8 hPa 0,0 l/m 0 min 0 min 0 W/m 0,0 km/h (0 Bft) 97,87 %
18.01.2021 18:42 5,4 C 4,4 C 2,8 C 92 % 1020,8 hPa 0,0 l/m 0 min 0 min 0 W/m 1,6 km/h (1 Bft) 93,62 %
18.01.2021 18:40 5,4 C 4,4 C 2,8 C 92 % 1020,7 hPa 0,0 l/m 0 min 0 min 0 W/m 16,1 km/h (3 Bft) 95,74 %
18.01.2021 18:38 5,4 C 4,4 C 2,8 C 92 % 1020,7 hPa 0,0 l/m 0 min 0 min 0 W/m 0,0 km/h (0 Bft) 95,74 %
18.01.2021 18:36 5,4 C 4,4 C 2,8 C 92 % 1020,7 hPa 0,0 l/m 0 min 0 min 0 W/m 0,0 km/h (0 Bft) 95,65 %
18.01.2021 18:34 5,4 C 4,4 C 2,8 C 92 % 1020,6 hPa 0,0 l/m 0 min 0 min 0 W/m 0,0 km/h (0 Bft) 95,74 %
18.01.2021 18:32 5,4 C 4,4 C 2,8 C 92 % 1020,7 hPa 0,0 l/m 0 min 0 min 0 W/m 8,0 km/h (2 Bft) 93,62 %
18.01.2021 18:30 5,4 C 4,4 C 2,8 C 92 % 1020,7 hPa 0,0 l/m 0 min 2 min 0 W/m 0,0 km/h (0 Bft) 95,74 %
18.01.2021 18:28 5,5 C 5,0 C 2,8 C 92 % 1020,6 hPa 0,0 l/m 0 min 0 min 0 W/m 9,7 km/h (2 Bft) 95,74 %
18.01.2021 18:26 5,5 C 5,0 C 2,8 C 92 % 1020,6 hPa 0,0 l/m 0 min 0 min 0 W/m 3,2 km/h (1 Bft) 93,62 %
18.01.2021 18:24 5,5 C 5,0 C 2,8 C 92 % 1020,6 hPa 0,0 l/m 0 min 0 min 0 W/m 1,6 km/h (1 Bft) 95,65 %
18.01.2021 18:22 5,5 C 5,0 C 2,8 C 92 % 1020,6 hPa 0,0 l/m 0 min 0 min 0 W/m 6,4 km/h (2 Bft) 95,74 %
18.01.2021 18:20 5,5 C 5,0 C 2,8 C 92 % 1020,7 hPa 0,0 l/m 0 min 0 min 0 W/m 1,6 km/h (1 Bft) 93,62 %
18.01.2021 18:18 5,5 C 5,0 C 2,8 C 92 % 1020,6 hPa 0,0 l/m 0 min 0 min 0 W/m 12,9 km/h (3 Bft) 95,74 %
18.01.2021 18:16 5,5 C 5,0 C 2,8 C 92 % 1020,6 hPa 0,0 l/m 0 min 0 min 0 W/m 0,0 km/h (0 Bft) 95,74 %
18.01.2021 18:14 5,5 C 5,0 C 2,8 C 92 % 1020,7 hPa 0,0 l/m 0 min 0 min 0 W/m 1,6 km/h (1 Bft) 95,65 %
18.01.2021 18:12 5,5 C 5,0 C 3,4 C 92 % 1020,6 hPa 0,0 l/m 0 min 0 min 0 W/m 1,6 km/h (1 Bft) 93,62 %
18.01.2021 18:10 5,5 C 5,0 C 3,4 C 92 % 1020,6 hPa 0,0 l/m 0 min 0 min 0 W/m 3,2 km/h (1 Bft) 93,62 %
18.01.2021 18:08 5,5 C 5,0 C 3,4 C 92 % 1020,6 hPa 0,0 l/m 0 min 0 min 0 W/m 6,4 km/h (2 Bft) 94,68 %
18.01.2021 18:04 5,5 C 5,0 C 3,4 C 91 % 1020,6 hPa 0,0 l/m 0 min 0 min 0 W/m 1,6 km/h (1 Bft) 95,74 %
18.01.2021 18:02 5,5 C 5,0 C 2,8 C 91 % 1020,6 hPa 0,0 l/m 0 min 0 min 0 W/m 0,0 km/h (0 Bft) 93,88 %
18.01.2021 18:00 5,6 C 5,0 C 2,8 C 91 % 1020,6 hPa 0,0 l/m 0 min 0 min 0 W/m 0,0 km/h (0 Bft) 95,74 %
18.01.2021 17:58 5,6 C 5,0 C 3,4 C 91 % 1020,6 hPa 0,0 l/m 0 min 0 min 0 W/m 6,4 km/h (2 Bft) 95,12 %
18.01.2021 17:56 5,6 C 5,0 C 2,8 C 91 % 1020,6 hPa 0,0 l/m 0 min 0 min 0 W/m 0,0 km/h (0 Bft) 97,87 %
18.01.2021 17:54 5,6 C 5,0 C 2,8 C 91 % 1020,7 hPa 0,0 l/m 0 min 0 min 0 W/m 6,4 km/h (2 Bft) 97,87 %
18.01.2021 17:52 5,6 C 5,0 C 3,4 C 91 % 1020,7 hPa 0,0 l/m 0 min 0 min 0 W/m 0,0 km/h (0 Bft) 97,87 %
18.01.2021 17:50 5,6 C 5,0 C 3,4 C 91 % 1020,7 hPa 0,0 l/m 0 min 0 min 0 W/m 0,0 km/h (0 Bft) 97,87 %
18.01.2021 17:48 5,6 C 5,0 C 3,4 C 91 % 1020,7 hPa 0,0 l/m 0 min 0 min 0 W/m 0,0 km/h (0 Bft) 97,87 %
18.01.2021 17:46 5,6 C 5,0 C 3,4 C 91 % 1020,7 hPa 0,0 l/m 0 min 0 min 0 W/m 0,0 km/h (0 Bft) 97,83 %
18.01.2021 17:44 5,6 C 5,0 C 3,4 C 91 % 1020,7 hPa 0,0 l/m 0 min 0 min 0 W/m 1,6 km/h (1 Bft) 97,87 %
18.01.2021 17:42 5,6 C 5,0 C 3,4 C 91 % 1020,7 hPa 0,0 l/m 0 min 0 min 0 W/m 1,6 km/h (1 Bft) 97,87 %
18.01.2021 17:40 5,5 C 5,0 C 3,4 C 91 % 1020,7 hPa 0,0 l/m 0 min 0 min 0 W/m 8,0 km/h (2 Bft) 100,00 %
18.01.2021 17:38 5,5 C 5,0 C 3,4 C 91 % 1020,7 hPa 0,0 l/m 0 min 0 min 0 W/m 0,0 km/h (0 Bft) 98,31 %
18.01.2021 17:36 5,5 C 5,0 C 3,4 C 91 % 1020,7 hPa 0,0 l/m 0 min 0 min 0 W/m 12,9 km/h (3 Bft) 95,74 %
18.01.2021 17:34 5,5 C 5,0 C 3,4 C 91 % 1020,8 hPa 0,0 l/m 0 min 0 min 0 W/m 9,7 km/h (2 Bft) 97,83 %
18.01.2021 17:32 5,5 C 5,0 C 2,8 C 91 % 1020,8 hPa 0,0 l/m 0 min 0 min 0 W/m 1,6 km/h (1 Bft) 97,22 %
18.01.2021 17:30 5,5 C 5,0 C 2,8 C 91 % 1020,7 hPa 0,0 l/m 0 min 0 min 0 W/m 0,0 km/h (0 Bft) 97,87 %
18.01.2021 17:28 5,5 C 5,0 C 3,4 C 91 % 1020,7 hPa 0,0 l/m 0 min 0 min 0 W/m 1,6 km/h (1 Bft) 97,87 %
18.01.2021 17:26 5,5 C 5,0 C 3,4 C 91 % 1020,7 hPa 0,0 l/m 0 min 0 min 0 W/m 12,9 km/h (3 Bft) 95,74 %
18.01.2021 17:24 5,5 C 5,0 C 3,4 C 91 % 1020,7 hPa 0,0 l/m 0 min 0 min 0 W/m 0,0 km/h (0 Bft) 97,87 %
18.01.2021 17:22 5,5 C 5,0 C 3,4 C 91 % 1020,7 hPa 0,0 l/m 0 min 0 min 0 W/m 0,0 km/h (0 Bft) 97,87 %
18.01.2021 17:20 5,5 C 5,0 C 3,4 C 91 % 1020,7 hPa 0,0 l/m 0 min 0 min 0 W/m 0,0 km/h (0 Bft) 97,83 %
18.01.2021 17:18 5,5 C 5,0 C 2,8 C 91 % 1020,7 hPa 0,0 l/m 0 min 0 min 0 W/m 11,3 km/h (2 Bft) 97,87 %
18.01.2021 17:16 5,5 C 5,0 C 2,8 C 91 % 1020,8 hPa 0,0 l/m 0 min 0 min 0 W/m 3,2 km/h (1 Bft) 97,87 %
18.01.2021 17:14 5,5 C 5,0 C 2,8 C 91 % 1020,8 hPa 0,0 l/m 0 min 0 min 0 W/m 11,3 km/h (2 Bft) 97,87 %
18.01.2021 17:12 5,5 C 5,0 C 2,8 C 91 % 1020,8 hPa 0,0 l/m 0 min 0 min 0 W/m 9,7 km/h (2 Bft) 97,87 %
18.01.2021 17:10 5,5 C 5,0 C 2,8 C 91 % 1020,7 hPa 0,0 l/m 0 min 0 min 0 W/m 9,7 km/h (2 Bft) 97,87 %
18.01.2021 17:08 5,5 C 5,0 C 2,8 C 91 % 1020,7 hPa 0,0 l/m 0 min 0 min 0 W/m 1,6 km/h (1 Bft) 97,83 %
18.01.2021 17:06 5,5 C 5,0 C 2,8 C 91 % 1020,7 hPa 0,0 l/m 0 min 0 min 0 W/m 11,3 km/h (2 Bft) 97,87 %
18.01.2021 17:04 5,5 C 5,0 C 2,8 C 91 % 1020,7 hPa 0,0 l/m 0 min 0 min 0 W/m 3,2 km/h (1 Bft) 97,87 %
18.01.2021 17:02 5,5 C 5,0 C 2,8 C 91 % 1020,7 hPa 0,0 l/m 0 min 0 min 0 W/m 1,6 km/h (1 Bft) 95,83 %
18.01.2021 17:00 5,5 C 5,0 C 2,8 C 91 % 1020,7 hPa 0,0 l/m 0 min 0 min 0 W/m 3,2 km/h (1 Bft) 97,87 %
18.01.2021 16:58 5,6 C 5,0 C 2,8 C 91 % 1020,8 hPa 0,0 l/m 0 min 0 min 0 W/m 12,9 km/h (3 Bft) 93,62 %
18.01.2021 16:56 5,6 C 5,0 C 2,8 C 91 % 1020,8 hPa 0,0 l/m 0 min 0 min 0 W/m 9,7 km/h (2 Bft) 97,83 %
18.01.2021 16:54 5,6 C 5,0 C 2,8 C 91 % 1020,7 hPa 0,0 l/m 0 min 0 min 0 W/m 0,0 km/h (0 Bft) 97,87 %
18.01.2021 16:52 5,6 C 5,0 C 2,8 C 91 % 1020,8 hPa 0,0 l/m 0 min 0 min 0 W/m 1,6 km/h (1 Bft) 97,87 %
18.01.2021 16:50 5,6 C 5,0 C 2,8 C 91 % 1020,8 hPa 0,0 l/m 0 min 2 min 0 W/m 1,6 km/h (1 Bft) 100,00 %
18.01.2021 16:48 5,6 C 5,0 C 2,8 C 91 % 1020,8 hPa 0,0 l/m 0 min 2 min 0 W/m 9,7 km/h (2 Bft) 100,00 %
18.01.2021 16:46 5,6 C 5,0 C 2,8 C 91 % 1020,8 hPa 0,0 l/m 0 min 0 min 0 W/m 14,5 km/h (3 Bft) 97,87 %
18.01.2021 16:44 5,6 C 5,0 C 2,8 C 91 % 1020,8 hPa 0,0 l/m 0 min 0 min 0 W/m 1,6 km/h (1 Bft) 100,00 %
18.01.2021 16:42 5,6 C 5,0 C 2,8 C 91 % 1020,8 hPa 0,0 l/m 0 min 0 min 0 W/m 6,4 km/h (2 Bft) 100,00 %
18.01.2021 16:40 5,6 C 5,0 C 2,8 C 91 % 1020,9 hPa 0,0 l/m 0 min 2 min 2 W/m 1,6 km/h (1 Bft) 100,00 %
18.01.2021 16:38 5,6 C 5,0 C 3,4 C 91 % 1020,9 hPa 0,0 l/m 0 min 0 min 1 W/m 3,2 km/h (1 Bft) 100,00 %
18.01.2021 16:36 5,6 C 5,0 C 3,4 C 91 % 1020,9 hPa 0,0 l/m 0 min 0 min 5 W/m 14,5 km/h (3 Bft) 100,00 %
18.01.2021 16:34 5,6 C 5,0 C 2,8 C 91 % 1021,0 hPa 0,0 l/m 0 min 0 min 5 W/m 0,0 km/h (0 Bft) 100,00 %
18.01.2021 16:32 5,6 C 5,0 C 2,8 C 91 % 1020,9 hPa 0,0 l/m 0 min 0 min 5 W/m 1,6 km/h (1 Bft) 100,00 %
18.01.2021 16:30 5,6 C 5,0 C 2,8 C 91 % 1020,9 hPa 0,0 l/m 0 min 0 min 7 W/m 0,0 km/h (0 Bft) 100,00 %
18.01.2021 16:28 5,6 C 5,0 C 2,8 C 91 % 1021,0 hPa 0,0 l/m 0 min 0 min 7 W/m 8,0 km/h (2 Bft) 97,87 %
18.01.2021 16:26 5,6 C 5,0 C 2,8 C 91 % 1021,0 hPa 0,0 l/m 0 min 0 min 7 W/m 1,6 km/h (1 Bft) 95,74 %
18.01.2021 16:24 5,6 C 5,0 C 2,8 C 91 % 1021,0 hPa 0,0 l/m 0 min 0 min 7 W/m 1,6 km/h (1 Bft) 97,87 %
18.01.2021 16:22 5,7 C 5,0 C 2,8 C 90 % 1021,0 hPa 0,0 l/m 0 min 0 min 9 W/m 0,0 km/h (0 Bft) 98,11 %
18.01.2021 16:20 5,7 C 5,0 C 2,8 C 90 % 1021,0 hPa 0,0 l/m 0 min 0 min 10 W/m 0,0 km/h (0 Bft) 97,87 %
18.01.2021 16:18 5,7 C 5,0 C 2,8 C 90 % 1021,0 hPa 0,0 l/m 0 min 0 min 11 W/m 0,0 km/h (0 Bft) 95,74 %
18.01.2021 16:16 5,8 C 5,0 C 2,8 C 90 % 1021,0 hPa 0,0 l/m 0 min 0 min 11 W/m 0,0 km/h (0 Bft) 95,74 %
18.01.2021 16:14 5,8 C 5,0 C 2,8 C 90 % 1021,1 hPa 0,0 l/m 0 min 0 min 11 W/m 0,0 km/h (0 Bft) 97,83 %
18.01.2021 16:12 5,8 C 5,0 C 2,8 C 90 % 1021,1 hPa 0,0 l/m 0 min 0 min 10 W/m 1,6 km/h (1 Bft) 97,87 %
18.01.2021 16:10 5,8 C 5,0 C 2,8 C 90 % 1021,1 hPa 0,0 l/m 0 min 0 min 8 W/m 12,9 km/h (3 Bft) 100,00 %
18.01.2021 16:08 5,8 C 5,0 C 2,8 C 90 % 1021,2 hPa 0,0 l/m 0 min 0 min 7 W/m 1,6 km/h (1 Bft) 95,74 %
18.01.2021 16:06 5,9 C 4,4 C 2,8 C 89 % 1021,2 hPa 0,0 l/m 0 min 0 min 8 W/m 1,6 km/h (1 Bft) 93,62 %
18.01.2021 16:04 5,9 C 4,4 C 2,8 C 89 % 1021,2 hPa 0,0 l/m 0 min 2 min 9 W/m 0,0 km/h (0 Bft) 95,74 %
18.01.2021 16:02 5,9 C 4,4 C 2,8 C 89 % 1021,2 hPa 0,0 l/m 0 min 2 min 12 W/m 0,0 km/h (0 Bft) 97,83 %
18.01.2021 16:00 6,0 C 5,0 C 2,8 C 89 % 1021,2 hPa 0,0 l/m 0 min 0 min 12 W/m 1,6 km/h (1 Bft) 93,62 %
18.01.2021 15:58 6,0 C 4,4 C 2,8 C 89 % 1021,2 hPa 0,0 l/m 0 min 0 min 15 W/m 0,0 km/h (0 Bft) 97,87 %
18.01.2021 15:56 6,0 C 4,4 C 2,8 C 88 % 1021,3 hPa 0,0 l/m 0 min 0 min 16 W/m 0,0 km/h (0 Bft) 97,87 %
18.01.2021 15:54 6,0 C 4,4 C 2,8 C 88 % 1021,3 hPa 0,0 l/m 0 min 0 min 19 W/m 1,6 km/h (1 Bft) 95,74 %
18.01.2021 15:52 6,1 C 4,4 C 2,8 C 88 % 1021,3 hPa 0,0 l/m 0 min 2 min 21 W/m 6,4 km/h (2 Bft) 97,87 %
18.01.2021 15:50 6,1 C 4,4 C 2,8 C 88 % 1021,3 hPa 0,0 l/m 0 min 2 min 20 W/m 3,2 km/h (1 Bft) 95,65 %
18.01.2021 15:48 6,1 C 4,4 C 2,8 C 87 % 1021,3 hPa 0,0 l/m 0 min 2 min 18 W/m 0,0 km/h (0 Bft) 95,74 %
18.01.2021 15:46 6,2 C 5,0 C 2,8 C 87 % 1021,3 hPa 0,0 l/m 0 min 2 min 19 W/m 1,6 km/h (1 Bft) 93,62 %
18.01.2021 15:44 6,3 C 5,0 C 3,4 C 87 % 1021,3 hPa 0,0 l/m 0 min 2 min 19 W/m 4,8 km/h (1 Bft) 95,74 %
18.01.2021 15:42 6,3 C 5,0 C 3,4 C 87 % 1021,3 hPa 0,0 l/m 0 min 2 min 19 W/m 19,3 km/h (3 Bft) 97,87 %
18.01.2021 15:40 6,3 C 5,6 C 3,4 C 87 % 1021,2 hPa 0,0 l/m 0 min 2 min 23 W/m 6,4 km/h (2 Bft) 97,87 %
18.01.2021 15:38 6,3 C 5,6 C 3,9 C 86 % 1021,3 hPa 0,0 l/m 0 min 0 min 31 W/m 11,3 km/h (2 Bft) 95,65 %
18.01.2021 15:36 6,3 C 5,6 C 3,9 C 86 % 1021,3 hPa 0,0 l/m 0 min 0 min 35 W/m 3,2 km/h (1 Bft) 95,74 %
18.01.2021 15:34 6,4 C 5,6 C 3,9 C 86 % 1021,2 hPa 0,0 l/m 0 min 0 min 36 W/m 1,6 km/h (1 Bft) 95,74 %
18.01.2021 15:32 6,4 C 5,6 C 3,9 C 86 % 1021,3 hPa 0,0 l/m 0 min 0 min 42 W/m 1,6 km/h (1 Bft) 95,74 %
18.01.2021 15:30 6,4 C 5,6 C 3,9 C 86 % 1021,3 hPa 0,0 l/m 0 min 0 min 44 W/m 8,0 km/h (2 Bft) 97,87 %
18.01.2021 15:28 6,4 C 5,6 C 3,9 C 86 % 1021,4 hPa 0,0 l/m 0 min 0 min 46 W/m 8,0 km/h (2 Bft) 95,74 %
18.01.2021 15:26 6,4 C 5,6 C 3,9 C 86 % 1021,4 hPa 0,0 l/m 0 min 0 min 49 W/m 3,2 km/h (1 Bft) 97,83 %
18.01.2021 15:24 6,4 C 6,1 C 3,9 C 86 % 1021,4 hPa 0,0 l/m 0 min 0 min 51 W/m 3,2 km/h (1 Bft) 95,74 %
18.01.2021 15:22 6,4 C 6,1 C 4,5 C 86 % 1021,4 hPa 0,0 l/m 0 min 0 min 61 W/m 1,6 km/h (1 Bft) 97,87 %
18.01.2021 15:20 6,4 C 6,1 C 4,5 C 86 % 1021,4 hPa 0,0 l/m 0 min 0 min 77 W/m 1,6 km/h (1 Bft) 97,87 %
18.01.2021 15:18 6,4 C 6,1 C 4,5 C 86 % 1021,4 hPa 0,0 l/m 0 min 0 min 96 W/m 1,6 km/h (1 Bft) 97,87 %
18.01.2021 15:16 6,4 C 6,1 C 4,5 C 86 % 1021,5 hPa 0,0 l/m 0 min 0 min 104 W/m 1,6 km/h (1 Bft) 97,87 %
18.01.2021 15:14 6,4 C 6,1 C 4,5 C 86 % 1021,4 hPa 0,0 l/m 0 min 0 min 94 W/m 16,1 km/h (3 Bft) 95,65 %
18.01.2021 15:12 6,4 C 6,1 C 4,5 C 86 % 1021,4 hPa 0,0 l/m 0 min 0 min 87 W/m 12,9 km/h (3 Bft) 95,74 %
18.01.2021 15:10 6,4 C 6,1 C 4,5 C 86 % 1021,4 hPa 0,0 l/m 0 min 0 min 70 W/m 20,9 km/h (4 Bft) 95,74 %
18.01.2021 15:08 6,4 C 6,1 C 4,5 C 86 % 1021,4 hPa 0,0 l/m 0 min 0 min 62 W/m 0,0 km/h (0 Bft) 97,87 %
18.01.2021 15:06 6,4 C 6,1 C 4,5 C 86 % 1021,4 hPa 0,0 l/m 0 min 0 min 63 W/m 17,7 km/h (3 Bft) 97,87 %
18.01.2021 15:04 6,4 C 6,1 C 4,5 C 86 % 1021,4 hPa 0,0 l/m 0 min 0 min 69 W/m 12,9 km/h (3 Bft) 100,00 %
18.01.2021 15:02 6,4 C 6,1 C 4,5 C 86 % 1021,4 hPa 0,0 l/m 0 min 0 min 74 W/m 9,7 km/h (2 Bft) 100,00 %
18.01.2021 15:00 6,4 C 6,1 C 4,5 C 86 % 1021,4 hPa 0,0 l/m 0 min 0 min 88 W/m 6,4 km/h (2 Bft) 100,00 %
18.01.2021 14:58 6,4 C 6,1 C 4,5 C 86 % 1021,3 hPa 0,0 l/m 0 min 0 min 84 W/m 0,0 km/h (0 Bft) 95,74 %
18.01.2021 14:56 6,4 C 6,1 C 4,5 C 86 % 1021,4 hPa 0,0 l/m 0 min 0 min 87 W/m 9,7 km/h (2 Bft) 100,00 %
18.01.2021 14:54 6,4 C 6,1 C 4,5 C 86 % 1021,3 hPa 0,0 l/m 0 min 0 min 88 W/m 9,7 km/h (2 Bft) 97,87 %
18.01.2021 14:52 6,4 C 6,1 C 5,0 C 86 % 1021,4 hPa 0,2 l/m 0 min 0 min 90 W/m 16,1 km/h (3 Bft) 100,00 %
18.01.2021 14:50 6,4 C 6,1 C 5,0 C 86 % 1021,4 hPa 0,0 l/m 0 min 0 min 110 W/m 14,5 km/h (3 Bft) 100,00 %
18.01.2021 14:48 6,4 C 6,1 C 5,0 C 86 % 1021,4 hPa 0,0 l/m 0 min 0 min 130 W/m 0,0 km/h (0 Bft) 100,00 %
18.01.2021 14:46 6,4 C 6,7 C 5,0 C 86 % 1021,4 hPa 0,0 l/m 2 min 0 min 133 W/m 1,6 km/h (1 Bft) 100,00 %
18.01.2021 14:44 6,4 C 6,1 C 5,0 C 87 % 1021,4 hPa 0,0 l/m 2 min 0 min 134 W/m 3,2 km/h (1 Bft) 100,00 %
18.01.2021 14:42 6,4 C 6,1 C 5,0 C 87 % 1021,5 hPa 0,0 l/m 2 min 0 min 140 W/m 11,3 km/h (2 Bft) 100,00 %
18.01.2021 14:40 6,3 C 6,7 C 5,0 C 87 % 1021,5 hPa 0,0 l/m 2 min 0 min 142 W/m 0,0 km/h (0 Bft) 100,00 %
18.01.2021 14:38 6,3 C 6,1 C 5,0 C 87 % 1021,5 hPa 0,0 l/m 2 min 0 min 138 W/m 1,6 km/h (1 Bft) 100,00 %
18.01.2021 14:36 6,3 C 6,1 C 5,0 C 87 % 1021,5 hPa 0,0 l/m 0 min 0 min 131 W/m 1,6 km/h (1 Bft) 100,00 %
18.01.2021 14:34 6,3 C 6,1 C 5,0 C 87 % 1021,6 hPa 0,0 l/m 0 min 0 min 113 W/m 0,0 km/h (0 Bft) 100,00 %
18.01.2021 14:32 6,3 C 6,1 C 5,0 C 87 % 1021,6 hPa 0,0 l/m 0 min 0 min 101 W/m 1,6 km/h (1 Bft) 100,00 %
18.01.2021 14:30 6,3 C 6,1 C 5,0 C 87 % 1021,6 hPa 0,0 l/m 0 min 0 min 96 W/m 0,0 km/h (0 Bft) 100,00 %
18.01.2021 14:28 6,3 C 6,1 C 5,0 C 87 % 1021,6 hPa 0,0 l/m 0 min 0 min 94 W/m 6,4 km/h (2 Bft) 100,00 %
18.01.2021 14:26 6,2 C 6,1 C 5,0 C 87 % 1021,6 hPa 0,0 l/m 0 min 0 min 105 W/m 1,6 km/h (1 Bft) 100,00 %
18.01.2021 14:24 6,2 C 6,7 C 5,0 C 87 % 1021,6 hPa 0,0 l/m 0 min 0 min 126 W/m 0,0 km/h (0 Bft) 100,00 %
18.01.2021 14:22 6,2 C 6,7 C 5,6 C 87 % 1021,7 hPa 0,0 l/m 0 min 0 min 146 W/m 1,6 km/h (1 Bft) 97,87 %
18.01.2021 14:20 6,1 C 6,7 C 5,6 C 87 % 1021,7 hPa 0,0 l/m 2 min 0 min 185 W/m 16,1 km/h (3 Bft) 100,00 %
18.01.2021 14:18 6,1 C 6,7 C 5,6 C 88 % 1021,7 hPa 0,0 l/m 2 min 0 min 179 W/m 0,0 km/h (0 Bft) 100,00 %
18.01.2021 14:16 6,1 C 6,7 C 5,6 C 88 % 1021,7 hPa 0,0 l/m 2 min 0 min 188 W/m 0,0 km/h (0 Bft) 100,00 %
18.01.2021 14:14 6,1 C 6,7 C 5,0 C 88 % 1021,7 hPa 0,0 l/m 2 min 0 min 184 W/m 6,4 km/h (2 Bft) 100,00 %
18.01.2021 14:12 6,0 C 6,1 C 5,0 C 87 % 1021,8 hPa 0,0 l/m 2 min 0 min 161 W/m 3,2 km/h (1 Bft) 100,00 %
18.01.2021 14:10 6,0 C 6,1 C 5,0 C 88 % 1021,8 hPa 0,0 l/m 0 min 0 min 144 W/m 1,6 km/h (1 Bft) 100,00 %
18.01.2021 14:08 6,0 C 6,1 C 5,0 C 88 % 1021,7 hPa 0,0 l/m 0 min 0 min 141 W/m 1,6 km/h (1 Bft) 100,00 %
18.01.2021 14:06 6,0 C 6,1 C 4,5 C 88 % 1021,7 hPa 0,0 l/m 0 min 0 min 126 W/m 6,4 km/h (2 Bft) 100,00 %
18.01.2021 14:04 6,0 C 6,1 C 4,5 C 88 % 1021,8 hPa 0,0 l/m 0 min 0 min 111 W/m 3,2 km/h (1 Bft) 100,00 %
18.01.2021 14:02 6,0 C 5,6 C 4,5 C 88 % 1021,8 hPa 0,0 l/m 0 min 0 min 101 W/m 12,9 km/h (3 Bft) 100,00 %
18.01.2021 14:00 6,0 C 5,6 C 4,5 C 88 % 1021,7 hPa 0,0 l/m 0 min 0 min 94 W/m 12,9 km/h (3 Bft) 100,00 %
18.01.2021 13:58 6,0 C 5,6 C 4,5 C 88 % 1021,7 hPa 0,0 l/m 0 min 0 min 90 W/m 4,8 km/h (1 Bft) 100,00 %
18.01.2021 13:56 6,0 C 6,1 C 4,5 C 88 % 1021,8 hPa 0,0 l/m 0 min 0 min 91 W/m 1,6 km/h (1 Bft) 97,87 %
18.01.2021 13:54 6,0 C 5,6 C 4,5 C 88 % 1021,8 hPa 0,0 l/m 0 min 0 min 93 W/m 3,2 km/h (1 Bft) 100,00 %
18.01.2021 13:52 6,0 C 5,6 C 4,5 C 88 % 1021,8 hPa 0,0 l/m 0 min 0 min 100 W/m 8,0 km/h (2 Bft) 100,00 %
18.01.2021 13:50 6,0 C 6,1 C 4,5 C 88 % 1021,9 hPa 0,0 l/m 0 min 0 min 104 W/m 1,6 km/h (1 Bft) 97,83 %
18.01.2021 13:48 5,9 C 5,6 C 5,0 C 88 % 1021,9 hPa 0,0 l/m 0 min 0 min 120 W/m 1,6 km/h (1 Bft) 95,74 %
18.01.2021 13:46 5,9 C 6,1 C 5,0 C 88 % 1021,9 hPa 0,0 l/m 0 min 0 min 128 W/m 3,2 km/h (1 Bft) 100,00 %
18.01.2021 13:44 5,9 C 6,1 C 5,0 C 88 % 1021,9 hPa 0,0 l/m 0 min 0 min 132 W/m 1,6 km/h (1 Bft) 100,00 %
18.01.2021 13:42 5,9 C 5,6 C 5,0 C 88 % 1021,9 hPa 0,0 l/m 0 min 0 min 129 W/m 3,2 km/h (1 Bft) 95,74 %
18.01.2021 13:40 5,9 C 6,1 C 5,0 C 88 % 1021,9 hPa 0,0 l/m 0 min 0 min 124 W/m 11,3 km/h (2 Bft) 100,00 %
18.01.2021 13:38 5,9 C 5,6 C 5,0 C 88 % 1022,0 hPa 0,0 l/m 0 min 0 min 120 W/m 3,2 km/h (1 Bft) 100,00 %
18.01.2021 13:36 5,9 C 5,6 C 5,0 C 88 % 1022,0 hPa 0,0 l/m 0 min 0 min 116 W/m 8,0 km/h (2 Bft) 97,87 %
18.01.2021 13:34 5,9 C 6,1 C 5,0 C 88 % 1022,0 hPa 0,0 l/m 0 min 0 min 117 W/m 0,0 km/h (0 Bft) 97,87 %
18.01.2021 13:32 5,9 C 5,6 C 5,0 C 89 % 1021,9 hPa 0,0 l/m 0 min 0 min 113 W/m 6,4 km/h (2 Bft) 93,62 %
18.01.2021 13:30 5,9 C 5,6 C 4,5 C 89 % 1021,9 hPa 0,0 l/m 0 min 0 min 107 W/m 8,0 km/h (2 Bft) 100,00 %
18.01.2021 13:28 5,9 C 5,6 C 4,5 C 89 % 1022,0 hPa 0,0 l/m 0 min 0 min 102 W/m 3,2 km/h (1 Bft) 93,48 %
18.01.2021 13:26 5,9 C 5,6 C 5,0 C 89 % 1022,0 hPa 0,0 l/m 0 min 0 min 98 W/m 12,9 km/h (3 Bft) 95,74 %
18.01.2021 13:24 5,9 C 5,6 C 5,0 C 89 % 1022,0 hPa 0,0 l/m 0 min 0 min 98 W/m 11,3 km/h (2 Bft) 95,74 %
18.01.2021 13:22 5,9 C 5,6 C 5,0 C 89 % 1022,0 hPa 0,0 l/m 0 min 0 min 101 W/m 1,6 km/h (1 Bft) 95,74 %
18.01.2021 13:20 5,9 C 5,6 C 5,0 C 89 % 1022,0 hPa 0,0 l/m 0 min 0 min 105 W/m 0,0 km/h (0 Bft) 93,62 %
18.01.2021 13:18 5,9 C 5,6 C 5,0 C 89 % 1022,0 hPa 0,0 l/m 0 min 0 min 115 W/m 6,4 km/h (2 Bft) 93,62 %
18.01.2021 13:16 5,9 C 6,1 C 5,0 C 90 % 1022,1 hPa 0,0 l/m 0 min 0 min 132 W/m 1,6 km/h (1 Bft) 93,62 %
18.01.2021 13:14 5,8 C 6,1 C 5,6 C 90 % 1022,1 hPa 0,0 l/m 0 min 0 min 142 W/m 3,2 km/h (1 Bft) 95,65 %
18.01.2021 13:12 5,8 C 6,1 C 5,6 C 90 % 1022,0 hPa 0,0 l/m 0 min 0 min 158 W/m 12,9 km/h (3 Bft) 95,74 %
18.01.2021 13:10 5,8 C 6,1 C 5,6 C 90 % 1022,1 hPa 0,0 l/m 0 min 0 min 160 W/m 12,9 km/h (3 Bft) 91,49 %
18.01.2021 13:08 5,8 C 6,1 C 5,6 C 90 % 1022,0 hPa 0,0 l/m 0 min 0 min 165 W/m 3,2 km/h (1 Bft) 93,62 %
18.01.2021 13:06 5,8 C 6,1 C 5,6 C 90 % 1022,0 hPa 0,0 l/m 0 min 0 min 164 W/m 6,4 km/h (2 Bft) 93,62 %
18.01.2021 13:04 5,7 C 6,1 C 5,6 C 91 % 1022,1 hPa 0,0 l/m 0 min 0 min 158 W/m 14,5 km/h (3 Bft) 93,62 %
18.01.2021 13:02 5,7 C 6,1 C 5,0 C 91 % 1022,2 hPa 0,0 l/m 0 min 0 min 152 W/m 1,6 km/h (1 Bft) 89,13 %
18.01.2021 13:00 5,6 C 6,1 C 5,6 C 91 % 1022,2 hPa 0,0 l/m 0 min 0 min 155 W/m 16,1 km/h (3 Bft) 91,49 %
18.01.2021 12:58 5,6 C 6,1 C 5,6 C 91 % 1022,3 hPa 0,0 l/m 0 min 0 min 164 W/m 16,1 km/h (3 Bft) 91,49 %
18.01.2021 12:56 5,5 C 6,1 C 5,6 C 91 % 1022,2 hPa 0,0 l/m 0 min 0 min 176 W/m 14,5 km/h (3 Bft) 82,98 %
18.01.2021 12:54 5,5 C 6,1 C 6,2 C 91 % 1022,2 hPa 0,0 l/m 2 min 0 min 196 W/m 0,0 km/h (0 Bft) 91,49 %
18.01.2021 12:52 5,5 C 6,7 C 6,2 C 91 % 1022,2 hPa 0,0 l/m 2 min 0 min 231 W/m 1,6 km/h (1 Bft) 91,30 %
18.01.2021 12:50 5,5 C 6,1 C 5,6 C 91 % 1022,4 hPa 0,0 l/m 2 min 0 min 239 W/m 1,6 km/h (1 Bft) 91,49 %
18.01.2021 12:48 5,4 C 5,6 C 5,0 C 91 % 1022,3 hPa 0,0 l/m 2 min 0 min 179 W/m 16,1 km/h (3 Bft) 93,62 %
18.01.2021 12:46 5,4 C 5,6 C 5,0 C 91 % 1022,3 hPa 0,0 l/m 0 min 0 min 150 W/m 17,7 km/h (3 Bft) 93,62 %
18.01.2021 12:44 5,4 C 5,6 C 5,0 C 91 % 1022,2 hPa 0,0 l/m 0 min 0 min 129 W/m 12,9 km/h (3 Bft) 93,62 %
18.01.2021 12:42 5,4 C 5,6 C 5,0 C 91 % 1022,3 hPa 0,0 l/m 0 min 0 min 123 W/m 16,1 km/h (3 Bft) 95,74 %
18.01.2021 12:40 5,4 C 5,6 C 5,0 C 91 % 1022,4 hPa 0,0 l/m 0 min 0 min 121 W/m 0,0 km/h (0 Bft) 93,48 %
18.01.2021 12:38 5,4 C 5,0 C 4,5 C 91 % 1022,4 hPa 0,0 l/m 0 min 0 min 121 W/m 1,6 km/h (1 Bft) 93,62 %
18.01.2021 12:36 5,4 C 5,0 C 4,5 C 91 % 1022,4 hPa 0,0 l/m 0 min 0 min 118 W/m 6,4 km/h (2 Bft) 89,36 %
18.01.2021 12:34 5,4 C 5,0 C 4,5 C 91 % 1022,5 hPa 0,0 l/m 0 min 0 min 114 W/m 14,5 km/h (3 Bft) 93,62 %
18.01.2021 12:32 5,4 C 5,0 C 4,5 C 91 % 1022,5 hPa 0,0 l/m 0 min 0 min 111 W/m 1,6 km/h (1 Bft) 93,62 %
18.01.2021 12:30 5,4 C 5,0 C 4,5 C 91 % 1022,5 hPa 0,0 l/m 0 min 0 min 108 W/m 16,1 km/h (3 Bft) 95,74 %
18.01.2021 12:28 5,4 C 5,0 C 4,5 C 91 % 1022,5 hPa 0,0 l/m 0 min 0 min 105 W/m 12,9 km/h (3 Bft) 97,83 %
18.01.2021 12:26 5,4 C 5,0 C 4,5 C 92 % 1022,6 hPa 0,0 l/m 0 min 0 min 104 W/m 9,7 km/h (2 Bft) 97,87 %
18.01.2021 12:24 5,4 C 5,0 C 5,0 C 92 % 1022,6 hPa 0,0 l/m 0 min 0 min 108 W/m 17,7 km/h (3 Bft) 97,87 %
18.01.2021 12:22 5,4 C 5,0 C 5,0 C 92 % 1022,6 hPa 0,0 l/m 0 min 0 min 109 W/m 9,7 km/h (2 Bft) 97,87 %
18.01.2021 12:20 5,4 C 5,0 C 5,0 C 93 % 1022,6 hPa 0,0 l/m 0 min 0 min 96 W/m 0,0 km/h (0 Bft) 95,74 %
18.01.2021 12:18 5,4 C 5,6 C 5,6 C 93 % 1022,6 hPa 0,0 l/m 0 min 0 min 94 W/m 1,6 km/h (1 Bft) 97,73 %
18.01.2021 12:16 5,3 C 6,1 C 6,2 C 93 % 1022,7 hPa 0,0 l/m 0 min 0 min 173 W/m 9,7 km/h (2 Bft) 97,87 %
18.01.2021 12:14 5,3 C 6,1 C 6,2 C 94 % 1022,8 hPa 0,0 l/m 2 min 0 min 231 W/m 17,7 km/h (3 Bft) 97,87 %
18.01.2021 12:12 5,2 C 6,1 C 6,2 C 94 % 1022,7 hPa 0,0 l/m 2 min 0 min 202 W/m 1,6 km/h (1 Bft) 95,74 %
18.01.2021 12:10 5,2 C 6,1 C 5,6 C 94 % 1022,8 hPa 0,0 l/m 0 min 0 min 166 W/m 11,3 km/h (2 Bft) 95,74 %
18.01.2021 12:08 5,1 C 6,1 C 6,2 C 94 % 1022,8 hPa 0,0 l/m 4 min 0 min 197 W/m 1,6 km/h (1 Bft) 96,77 %
18.01.2021 12:04 5,0 C 5,6 C 5,6 C 95 % 1022,9 hPa 0,0 l/m 2 min 0 min 191 W/m 17,7 km/h (3 Bft) 97,87 %
18.01.2021 12:02 4,9 C 6,7 C 6,2 C 95 % 1023,0 hPa 0,0 l/m 2 min 0 min 243 W/m 1,6 km/h (1 Bft) 97,87 %
18.01.2021 12:00 4,8 C 7,2 C 6,2 C 95 % 1023,0 hPa 0,0 l/m 2 min 0 min 305 W/m 12,9 km/h (3 Bft) 97,87 %
18.01.2021 11:58 4,8 C 6,7 C 5,6 C 95 % 1023,0 hPa 0,0 l/m 2 min 0 min 262 W/m 1,6 km/h (1 Bft) 100,00 %
18.01.2021 11:56 4,6 C 6,7 C 5,0 C 95 % 1023,0 hPa 0,0 l/m 2 min 0 min 249 W/m 8,0 km/h (2 Bft) 100,00 %
18.01.2021 11:54 4,6 C 6,7 C 4,5 C 95 % 1023,1 hPa 0,0 l/m 2 min 0 min 273 W/m 3,2 km/h (1 Bft) 100,00 %
18.01.2021 11:52 4,5 C 7,2 C 4,5 C 95 % 1023,2 hPa 0,0 l/m 2 min 0 min 243 W/m 0,0 km/h (0 Bft) 100,00 %
18.01.2021 11:50 4,5 C 6,7 C 4,5 C 95 % 1023,2 hPa 0,0 l/m 2 min 0 min 283 W/m 1,6 km/h (1 Bft) 100,00 %
18.01.2021 11:48 4,4 C 6,1 C 3,9 C 95 % 1023,2 hPa 0,0 l/m 2 min 0 min 200 W/m 0,0 km/h (0 Bft) 100,00 %
18.01.2021 11:46 4,4 C 5,6 C 3,9 C 95 % 1023,3 hPa 0,0 l/m 2 min 0 min 173 W/m 1,6 km/h (1 Bft) 100,00 %
18.01.2021 11:44 4,3 C 5,0 C 3,9 C 96 % 1023,3 hPa 0,0 l/m 0 min 0 min 128 W/m 1,6 km/h (1 Bft) 100,00 %
18.01.2021 11:42 4,3 C 5,0 C 3,9 C 96 % 1023,3 hPa 0,0 l/m 0 min 0 min 117 W/m 1,6 km/h (1 Bft) 100,00 %
18.01.2021 11:40 4,3 C 5,0 C 3,9 C 95 % 1023,3 hPa 0,0 l/m 0 min 0 min 105 W/m 0,0 km/h (0 Bft) 100,00 %
18.01.2021 11:38 4,3 C 5,0 C 3,9 C 96 % 1023,3 hPa 0,0 l/m 0 min 0 min 113 W/m 1,6 km/h (1 Bft) 100,00 %
18.01.2021 11:36 4,3 C 5,0 C 3,9 C 96 % 1023,4 hPa 0,0 l/m 0 min 0 min 102 W/m 1,6 km/h (1 Bft) 97,87 %
18.01.2021 11:34 4,2 C 4,4 C 3,9 C 96 % 1023,4 hPa 0,0 l/m 0 min 0 min 98 W/m 0,0 km/h (0 Bft) 100,00 %
18.01.2021 11:32 4,2 C 5,0 C 3,9 C 96 % 1023,4 hPa 0,0 l/m 0 min 0 min 116 W/m 1,6 km/h (1 Bft) 100,00 %
18.01.2021 11:30 4,1 C 4,4 C 3,9 C 96 % 1023,5 hPa 0,0 l/m 0 min 0 min 105 W/m 6,4 km/h (2 Bft) 97,83 %
18.01.2021 11:28 4,1 C 4,4 C 3,9 C 96 % 1023,4 hPa 0,0 l/m 0 min 0 min 87 W/m 0,0 km/h (0 Bft) 100,00 %
18.01.2021 11:26 4,1 C 4,4 C 3,4 C 96 % 1023,5 hPa 0,0 l/m 0 min 0 min 83 W/m 0,0 km/h (0 Bft) 97,87 %
18.01.2021 11:24 4,1 C 4,4 C 3,4 C 96 % 1023,5 hPa 0,0 l/m 0 min 0 min 92 W/m 3,2 km/h (1 Bft) 100,00 %
18.01.2021 11:22 4,1 C 4,4 C 3,4 C 96 % 1023,4 hPa 0,0 l/m 0 min 0 min 83 W/m 0,0 km/h (0 Bft) 100,00 %
18.01.2021 11:20 4,1 C 4,4 C 3,4 C 96 % 1023,5 hPa 0,0 l/m 0 min 0 min 78 W/m 0,0 km/h (0 Bft) 100,00 %
18.01.2021 11:18 4,0 C 4,4 C 3,4 C 96 % 1023,5 hPa 0,0 l/m 0 min 0 min 68 W/m 0,0 km/h (0 Bft) 100,00 %
18.01.2021 11:16 4,0 C 3,9 C 3,4 C 96 % 1023,5 hPa 0,0 l/m 0 min 0 min 68 W/m 0,0 km/h (0 Bft) 97,87 %
18.01.2021 11:14 4,0 C 3,9 C 3,4 C 96 % 1023,6 hPa 0,0 l/m 0 min 0 min 66 W/m 0,0 km/h (0 Bft) 100,00 %
18.01.2021 11:12 4,0 C 3,9 C 3,4 C 96 % 1023,6 hPa 0,0 l/m 0 min 0 min 63 W/m 0,0 km/h (0 Bft) 97,87 %
18.01.2021 11:10 4,0 C 3,9 C 3,4 C 96 % 1023,6 hPa 0,0 l/m 0 min 0 min 59 W/m 0,0 km/h (0 Bft) 100,00 %
18.01.2021 11:08 4,0 C 3,9 C 3,4 C 96 % 1023,6 hPa 0,0 l/m 0 min 0 min 58 W/m 0,0 km/h (0 Bft) 100,00 %
18.01.2021 11:06 4,0 C 3,9 C 3,4 C 96 % 1023,6 hPa 0,0 l/m 0 min 0 min 60 W/m 0,0 km/h (0 Bft) 100,00 %
18.01.2021 11:04 4,0 C 3,9 C 3,4 C 96 % 1023,6 hPa 0,0 l/m 0 min 0 min 62 W/m 0,0 km/h (0 Bft) 97,87 %
18.01.2021 11:02 4,0 C 3,9 C 3,4 C 97 % 1023,7 hPa 0,0 l/m 0 min 0 min 58 W/m 0,0 km/h (0 Bft) 100,00 %
18.01.2021 11:00 4,0 C 3,9 C 3,4 C 97 % 1023,7 hPa 0,0 l/m 0 min 0 min 56 W/m 11,3 km/h (2 Bft) 100,00 %
18.01.2021 10:58 4,0 C 3,9 C 3,4 C 97 % 1023,7 hPa 0,0 l/m 0 min 0 min 54 W/m 0,0 km/h (0 Bft) 100,00 %
18.01.2021 10:56 4,1 C 3,9 C 3,4 C 97 % 1023,8 hPa 0,0 l/m 0 min 0 min 52 W/m 1,6 km/h (1 Bft) 100,00 %
18.01.2021 10:54 4,0 C 3,9 C 3,4 C 97 % 1023,7 hPa 0,0 l/m 0 min 0 min 51 W/m 0,0 km/h (0 Bft) 95,74 %
18.01.2021 10:52 4,0 C 3,9 C 3,4 C 97 % 1023,7 hPa 0,0 l/m 0 min 0 min 53 W/m 0,0 km/h (0 Bft) 100,00 %
18.01.2021 10:50 4,0 C 3,9 C 3,4 C 97 % 1023,7 hPa 0,0 l/m 0 min 0 min 55 W/m 1,6 km/h (1 Bft) 100,00 %
18.01.2021 10:48 4,0 C 3,9 C 3,4 C 97 % 1023,7 hPa 0,0 l/m 0 min 0 min 61 W/m 1,6 km/h (1 Bft) 100,00 %
18.01.2021 10:46 4,0 C 3,9 C 3,4 C 97 % 1023,7 hPa 0,0 l/m 0 min 0 min 60 W/m 0,0 km/h (0 Bft) 97,87 %
18.01.2021 10:44 4,0 C 3,9 C 3,4 C 97 % 1023,7 hPa 0,0 l/m 0 min 0 min 58 W/m 0,0 km/h (0 Bft) 100,00 %
18.01.2021 10:42 4,0 C 3,9 C 3,4 C 97 % 1023,6 hPa 0,0 l/m 0 min 0 min 55 W/m 8,0 km/h (2 Bft) 97,87 %
18.01.2021 10:40 4,0 C 3,9 C 3,4 C 97 % 1023,6 hPa 0,0 l/m 0 min 0 min 48 W/m 1,6 km/h (1 Bft) 97,87 %
18.01.2021 10:38 4,0 C 3,9 C 3,4 C 97 % 1023,6 hPa 0,0 l/m 0 min 0 min 45 W/m 9,7 km/h (2 Bft) 97,87 %
18.01.2021 10:36 4,0 C 3,9 C 3,4 C 97 % 1023,6 hPa 0,0 l/m 0 min 0 min 43 W/m 0,0 km/h (0 Bft) 97,87 %
18.01.2021 10:34 4,0 C 3,9 C 3,4 C 97 % 1023,6 hPa 0,0 l/m 0 min 0 min 45 W/m 0,0 km/h (0 Bft) 93,62 %
18.01.2021 10:32 4,0 C 3,9 C 3,4 C 97 % 1023,6 hPa 0,0 l/m 0 min 0 min 49 W/m 1,6 km/h (1 Bft) 97,83 %
18.01.2021 10:30 4,0 C 3,9 C 3,4 C 98 % 1023,6 hPa 0,0 l/m 0 min 0 min 50 W/m 0,0 km/h (0 Bft) 97,87 %
18.01.2021 10:28 4,0 C 3,9 C 3,4 C 98 % 1023,6 hPa 0,0 l/m 0 min 0 min 51 W/m 0,0 km/h (0 Bft) 97,87 %
18.01.2021 10:26 4,0 C 3,9 C 3,4 C 97 % 1023,6 hPa 0,0 l/m 0 min 0 min 52 W/m 1,6 km/h (1 Bft) 97,87 %
18.01.2021 10:24 4,0 C 3,9 C 3,4 C 97 % 1023,7 hPa 0,0 l/m 0 min 0 min 53 W/m 0,0 km/h (0 Bft) 97,87 %
18.01.2021 10:22 4,0 C 3,3 C 3,4 C 98 % 1023,6 hPa 0,0 l/m 0 min 0 min 54 W/m 0,0 km/h (0 Bft) 97,87 %
18.01.2021 10:20 4,0 C 3,3 C 3,4 C 98 % 1023,6 hPa 0,0 l/m 0 min 0 min 49 W/m 0,0 km/h (0 Bft) 97,83 %
18.01.2021 10:18 4,0 C 3,9 C 3,4 C 98 % 1023,7 hPa 0,0 l/m 0 min 0 min 41 W/m 1,6 km/h (1 Bft) 100,00 %
18.01.2021 10:16 4,0 C 3,9 C 3,4 C 98 % 1023,6 hPa 0,0 l/m 0 min 0 min 46 W/m 1,6 km/h (1 Bft) 94,00 %
18.01.2021 10:14 4,0 C 3,3 C 3,4 C 98 % 1023,7 hPa 0,0 l/m 0 min 0 min 52 W/m 1,6 km/h (1 Bft) 97,87 %
18.01.2021 10:12 4,0 C 3,3 C 3,4 C 98 % 1023,6 hPa 0,0 l/m 0 min 0 min 45 W/m 1,6 km/h (1 Bft) 95,74 %
18.01.2021 10:10 3,9 C 3,3 C 3,4 C 98 % 1023,6 hPa 0,0 l/m 0 min 0 min 47 W/m 1,6 km/h (1 Bft) 93,48 %
18.01.2021 10:08 3,9 C 3,9 C 3,4 C 98 % 1023,6 hPa 0,0 l/m 0 min 0 min 52 W/m 0,0 km/h (0 Bft) 95,74 %
18.01.2021 10:06 3,9 C 3,3 C 3,4 C 98 % 1023,7 hPa 0,0 l/m 0 min 0 min 51 W/m 0,0 km/h (0 Bft) 95,74 %
18.01.2021 10:04 3,9 C 3,3 C 3,4 C 98 % 1023,6 hPa 0,0 l/m 0 min 0 min 49 W/m 0,0 km/h (0 Bft) 95,74 %
18.01.2021 10:02 3,9 C 3,3 C 3,4 C 98 % 1023,7 hPa 0,0 l/m 0 min 0 min 48 W/m 14,5 km/h (3 Bft) 95,74 %
18.01.2021 10:00 3,9 C 3,3 C 3,4 C 98 % 1023,7 hPa 0,0 l/m 0 min 0 min 49 W/m 0,0 km/h (0 Bft) 93,62 %
18.01.2021 09:58 3,9 C 3,3 C 3,4 C 98 % 1023,6 hPa 0,0 l/m 0 min 0 min 48 W/m 0,0 km/h (0 Bft) 95,65 %
18.01.2021 09:56 3,9 C 3,3 C 3,4 C 98 % 1023,7 hPa 0,0 l/m 0 min 0 min 43 W/m 0,0 km/h (0 Bft) 95,74 %
18.01.2021 09:54 3,9 C 3,3 C 3,4 C 98 % 1023,7 hPa 0,0 l/m 0 min 0 min 32 W/m 0,0 km/h (0 Bft) 97,87 %
18.01.2021 09:52 3,9 C 3,3 C 3,4 C 98 % 1023,7 hPa 0,0 l/m 0 min 0 min 30 W/m 0,0 km/h (0 Bft) 97,87 %
18.01.2021 09:50 3,9 C 3,3 C 3,4 C 98 % 1023,7 hPa 0,0 l/m 0 min 0 min 29 W/m 3,2 km/h (1 Bft) 97,87 %
18.01.2021 09:48 3,9 C 3,3 C 3,4 C 98 % 1023,7 hPa 0,0 l/m 0 min 0 min 29 W/m 0,0 km/h (0 Bft) 97,87 %
18.01.2021 09:46 3,8 C 3,3 C 2,8 C 98 % 1023,7 hPa 0,0 l/m 0 min 0 min 24 W/m 0,0 km/h (0 Bft) 97,83 %
18.01.2021 09:44 3,8 C 3,3 C 2,8 C 98 % 1023,6 hPa 0,0 l/m 0 min 0 min 23 W/m 0,0 km/h (0 Bft) 93,62 %
18.01.2021 09:42 3,8 C 3,3 C 2,8 C 98 % 1023,6 hPa 0,0 l/m 0 min 0 min 26 W/m 0,0 km/h (0 Bft) 100,00 %
18.01.2021 09:40 3,8 C 3,3 C 2,8 C 98 % 1023,6 hPa 0,0 l/m 0 min 0 min 25 W/m 0,0 km/h (0 Bft) 97,87 %
18.01.2021 09:38 3,8 C 3,3 C 2,8 C 98 % 1023,5 hPa 0,0 l/m 0 min 0 min 22 W/m 1,6 km/h (1 Bft) 97,87 %
18.01.2021 09:36 3,8 C 3,3 C 2,8 C 98 % 1023,6 hPa 0,0 l/m 0 min 0 min 18 W/m 1,6 km/h (1 Bft) 95,74 %
18.01.2021 09:34 3,8 C 3,3 C 2,8 C 98 % 1023,6 hPa 0,0 l/m 0 min 0 min 22 W/m 0,0 km/h (0 Bft) 95,65 %
18.01.2021 09:32 3,8 C 3,3 C 2,8 C 98 % 1023,6 hPa 0,0 l/m 0 min 0 min 22 W/m 0,0 km/h (0 Bft) 97,87 %
18.01.2021 09:30 3,7 C 3,3 C 2,8 C 98 % 1023,6 hPa 0,0 l/m 0 min 0 min 21 W/m 0,0 km/h (0 Bft) 91,49 %
18.01.2021 09:28 3,7 C 3,3 C 2,8 C 98 % 1023,6 hPa 0,0 l/m 0 min 0 min 18 W/m 1,6 km/h (1 Bft) 95,74 %
18.01.2021 09:26 3,7 C 3,3 C 2,8 C 98 % 1023,5 hPa 0,0 l/m 0 min 0 min 18 W/m 6,4 km/h (2 Bft) 100,00 %
18.01.2021 09:24 3,7 C 3,3 C 2,8 C 98 % 1023,5 hPa 0,0 l/m 0 min 0 min 20 W/m 1,6 km/h (1 Bft) 97,87 %
18.01.2021 09:22 3,7 C 3,3 C 2,8 C 98 % 1023,5 hPa 0,0 l/m 0 min 0 min 22 W/m 0,0 km/h (0 Bft) 97,83 %
18.01.2021 09:20 3,6 C 3,3 C 2,8 C 98 % 1023,5 hPa 0,0 l/m 0 min 0 min 19 W/m 0,0 km/h (0 Bft) 97,87 %
18.01.2021 09:18 3,6 C 3,3 C 2,8 C 98 % 1023,5 hPa 0,0 l/m 0 min 0 min 19 W/m 12,9 km/h (3 Bft) 100,00 %
18.01.2021 09:16 3,6 C 3,3 C 2,8 C 98 % 1023,4 hPa 0,0 l/m 0 min 0 min 22 W/m 8,0 km/h (2 Bft) 100,00 %
18.01.2021 09:14 3,6 C 3,3 C 2,8 C 98 % 1023,5 hPa 0,0 l/m 0 min 0 min 26 W/m 0,0 km/h (0 Bft) 97,87 %
18.01.2021 09:12 3,6 C 3,3 C 2,8 C 98 % 1023,5 hPa 0,0 l/m 0 min 0 min 25 W/m 3,2 km/h (1 Bft) 100,00 %
18.01.2021 09:10 3,5 C 3,3 C 2,8 C 98 % 1023,4 hPa 0,0 l/m 0 min 0 min 20 W/m 8,0 km/h (2 Bft) 100,00 %
18.01.2021 09:08 3,5 C 3,3 C 2,8 C 98 % 1023,4 hPa 0,0 l/m 0 min 0 min 17 W/m 0,0 km/h (0 Bft) 100,00 %
18.01.2021 09:06 3,5 C 3,3 C 2,8 C 98 % 1023,4 hPa 0,0 l/m 0 min 0 min 16 W/m 0,0 km/h (0 Bft) 100,00 %
18.01.2021 09:04 3,5 C 2,8 C 2,8 C 98 % 1023,4 hPa 0,0 l/m 0 min 0 min 15 W/m 0,0 km/h (0 Bft) 97,87 %
18.01.2021 09:02 3,5 C 2,8 C 2,8 C 98 % 1023,4 hPa 0,0 l/m 0 min 0 min 14 W/m 0,0 km/h (0 Bft) 97,87 %
18.01.2021 09:00 3,5 C 2,8 C 2,8 C 98 % 1023,4 hPa 0,0 l/m 0 min 0 min 11 W/m 1,6 km/h (1 Bft) 100,00 %
18.01.2021 08:58 3,5 C 2,8 C 2,8 C 98 % 1023,4 hPa 0,0 l/m 0 min 0 min 11 W/m 0,0 km/h (0 Bft) 50,00 %
18.01.2021 08:56 3,5 C 2,8 C 2,8 C 98 % 1023,4 hPa 0,0 l/m 0 min 0 min 10 W/m 0,0 km/h (0 Bft) 97,87 %
18.01.2021 08:54 3,5 C 2,8 C 2,8 C 98 % 1023,4 hPa 0,0 l/m 0 min 0 min 9 W/m 3,2 km/h (1 Bft) 100,00 %
18.01.2021 08:52 3,5 C 2,8 C 2,3 C 98 % 1023,4 hPa 0,0 l/m 0 min 0 min 9 W/m 0,0 km/h (0 Bft) 100,00 %
18.01.2021 08:50 3,5 C 2,8 C 2,3 C 98 % 1023,3 hPa 0,0 l/m 0 min 0 min 8 W/m 1,6 km/h (1 Bft) 100,00 %
18.01.2021 08:48 3,5 C 2,8 C 2,3 C 98 % 1023,4 hPa 0,0 l/m 0 min 0 min 7 W/m 0,0 km/h (0 Bft) 100,00 %
18.01.2021 08:46 3,5 C 2,8 C 2,3 C 98 % 1023,4 hPa 0,0 l/m 0 min 0 min 5 W/m 1,6 km/h (1 Bft) 100,00 %
18.01.2021 08:44 3,5 C 2,8 C 2,3 C 98 % 1023,4 hPa 0,0 l/m 0 min 0 min 5 W/m 0,0 km/h (0 Bft) 97,87 %
18.01.2021 08:42 3,4 C 2,8 C 2,3 C 98 % 1023,4 hPa 0,0 l/m 0 min 0 min 5 W/m 1,6 km/h (1 Bft) 100,00 %
18.01.2021 08:40 3,4 C 2,8 C 2,3 C 98 % 1023,5 hPa 0,0 l/m 0 min 0 min 1 W/m 3,2 km/h (1 Bft) 100,00 %
18.01.2021 08:38 3,4 C 2,8 C 2,3 C 98 % 1023,5 hPa 0,0 l/m 0 min 0 min 0 W/m 0,0 km/h (0 Bft) 100,00 %
18.01.2021 08:36 3,5 C 2,8 C 2,3 C 98 % 1023,5 hPa 0,0 l/m 0 min 0 min 0 W/m 6,4 km/h (2 Bft) 100,00 %
18.01.2021 08:34 3,5 C 2,8 C 2,3 C 98 % 1023,5 hPa 0,0 l/m 0 min 0 min 0 W/m 0,0 km/h (0 Bft) 100,00 %
18.01.2021 08:32 3,5 C 2,8 C 2,3 C 98 % 1023,5 hPa 0,0 l/m 0 min 0 min 0 W/m 0,0 km/h (0 Bft) 100,00 %
18.01.2021 08:30 3,5 C 2,8 C 2,3 C 98 % 1023,5 hPa 0,0 l/m 0 min 0 min 0 W/m 0,0 km/h (0 Bft) 100,00 %
18.01.2021 08:28 3,5 C 2,8 C 2,3 C 98 % 1023,5 hPa 0,0 l/m 0 min 0 min 0 W/m 0,0 km/h (0 Bft) 100,00 %
18.01.2021 08:26 3,5 C 2,8 C 2,3 C 98 % 1023,5 hPa 0,0 l/m 0 min 0 min 0 W/m 1,6 km/h (1 Bft) 100,00 %
18.01.2021 08:24 3,5 C 2,8 C 2,3 C 98 % 1023,5 hPa 0,0 l/m 0 min 0 min 0 W/m 0,0 km/h (0 Bft) 100,00 %
18.01.2021 08:22 3,5 C 2,8 C 2,3 C 98 % 1023,5 hPa 0,0 l/m 0 min 0 min 0 W/m 0,0 km/h (0 Bft) 100,00 %
18.01.2021 08:20 3,5 C 2,8 C 2,3 C 98 % 1023,4 hPa 0,0 l/m 0 min 0 min 0 W/m 0,0 km/h (0 Bft) 100,00 %
18.01.2021 08:18 3,6 C 2,8 C 2,3 C 98 % 1023,4 hPa 0,0 l/m 0 min 0 min 0 W/m 0,0 km/h (0 Bft) 100,00 %
18.01.2021 08:16 3,6 C 2,8 C 2,3 C 98 % 1023,4 hPa 0,0 l/m 0 min 0 min 0 W/m 0,0 km/h (0 Bft) 100,00 %
18.01.2021 08:14 3,6 C 2,8 C 2,3 C 98 % 1023,5 hPa 0,0 l/m 0 min 0 min 0 W/m 0,0 km/h (0 Bft) 100,00 %
18.01.2021 08:12 3,6 C 2,8 C 2,3 C 98 % 1023,5 hPa 0,0 l/m 0 min 0 min 0 W/m 0,0 km/h (0 Bft) 100,00 %
18.01.2021 08:10 3,6 C 2,8 C 2,3 C 98 % 1023,5 hPa 0,0 l/m 0 min 0 min 0 W/m 6,4 km/h (2 Bft) 100,00 %
18.01.2021 08:08 3,6 C 2,8 C 2,3 C 98 % 1023,5 hPa 0,0 l/m 0 min 0 min 0 W/m 0,0 km/h (0 Bft) 100,00 %
18.01.2021 08:06 3,6 C 3,3 C 2,3 C 98 % 1023,5 hPa 0,0 l/m 0 min 0 min 0 W/m 1,6 km/h (1 Bft) 100,00 %
18.01.2021 08:04 3,6 C 3,3 C 2,8 C 98 % 1023,5 hPa 0,0 l/m 0 min 0 min 0 W/m 0,0 km/h (0 Bft) 97,87 %
18.01.2021 08:02 3,6 C 3,3 C 2,8 C 98 % 1023,5 hPa 0,0 l/m 0 min 0 min 0 W/m 0,0 km/h (0 Bft) 100,00 %
18.01.2021 08:00 3,6 C 3,3 C 2,8 C 98 % 1023,5 hPa 0,0 l/m 0 min 0 min 0 W/m 0,0 km/h (0 Bft) 100,00 %
18.01.2021 07:58 3,6 C 3,3 C 2,3 C 98 % 1023,5 hPa 0,0 l/m 0 min 0 min 0 W/m 3,2 km/h (1 Bft) 100,00 %
18.01.2021 07:56 3,6 C 3,3 C 2,8 C 98 % 1023,5 hPa 0,0 l/m 0 min 0 min 0 W/m 3,2 km/h (1 Bft) 100,00 %
18.01.2021 07:54 3,6 C 3,3 C 2,3 C 98 % 1023,5 hPa 0,0 l/m 0 min 0 min 0 W/m 1,6 km/h (1 Bft) 100,00 %
18.01.2021 07:52 3,6 C 3,3 C 2,3 C 98 % 1023,5 hPa 0,0 l/m 0 min 0 min 0 W/m 3,2 km/h (1 Bft) 100,00 %
18.01.2021 07:50 3,6 C 2,8 C 2,3 C 98 % 1023,6 hPa 0,0 l/m 0 min 0 min 0 W/m 1,6 km/h (1 Bft) 97,87 %
18.01.2021 07:48 3,6 C 2,8 C 2,3 C 98 % 1023,6 hPa 0,0 l/m 0 min 0 min 0 W/m 8,0 km/h (2 Bft) 97,83 %
18.01.2021 07:46 3,6 C 2,8 C 2,3 C 98 % 1023,6 hPa 0,0 l/m 0 min 0 min 0 W/m 0,0 km/h (0 Bft) 97,87 %
18.01.2021 07:44 3,6 C 2,8 C 2,3 C 98 % 1023,6 hPa 0,0 l/m 0 min 0 min 0 W/m 0,0 km/h (0 Bft) 97,87 %
18.01.2021 07:42 3,6 C 2,8 C 2,3 C 98 % 1023,6 hPa 0,0 l/m 0 min 0 min 0 W/m 0,0 km/h (0 Bft) 97,87 %
18.01.2021 07:40 3,6 C 2,8 C 2,3 C 98 % 1023,6 hPa 0,0 l/m 0 min 0 min 0 W/m 0,0 km/h (0 Bft) 97,22 %
18.01.2021 07:38 3,6 C 2,8 C 2,3 C 98 % 1023,6 hPa 0,0 l/m 0 min 0 min 0 W/m 3,2 km/h (1 Bft) 97,92 %
18.01.2021 07:36 3,6 C 2,8 C 2,3 C 98 % 1023,6 hPa 0,0 l/m 0 min 0 min 0 W/m 0,0 km/h (0 Bft) 93,75 %
18.01.2021 07:34 3,6 C 2,8 C 2,3 C 98 % 1023,6 hPa 0,0 l/m 0 min 0 min 0 W/m 0,0 km/h (0 Bft) 93,88 %
18.01.2021 07:32 3,6 C 2,8 C 2,3 C 98 % 1023,7 hPa 0,0 l/m 0 min 0 min 0 W/m 0,0 km/h (0 Bft) 98,11 %
18.01.2021 07:30 3,6 C 2,8 C 2,3 C 98 % 1023,6 hPa 0,0 l/m 0 min 0 min 0 W/m 0,0 km/h (0 Bft) 95,74 %
18.01.2021 07:28 3,5 C 2,8 C 2,3 C 98 % 1023,6 hPa 0,0 l/m 0 min 0 min 0 W/m 0,0 km/h (0 Bft) 95,74 %
18.01.2021 07:26 3,5 C 2,8 C 2,3 C 98 % 1023,6 hPa 0,0 l/m 0 min 0 min 0 W/m 0,0 km/h (0 Bft) 95,74 %
18.01.2021 07:24 3,5 C 2,8 C 2,3 C 98 % 1023,6 hPa 0,0 l/m 0 min 0 min 0 W/m 1,6 km/h (1 Bft) 93,48 %
18.01.2021 07:22 3,5 C 2,8 C 2,3 C 98 % 1023,6 hPa 0,0 l/m 0 min 0 min 0 W/m 0,0 km/h (0 Bft) 95,74 %
18.01.2021 07:20 3,5 C 2,8 C 2,3 C 98 % 1023,6 hPa 0,0 l/m 0 min 0 min 0 W/m 1,6 km/h (1 Bft) 95,74 %
18.01.2021 07:18 3,5 C 2,8 C 2,3 C 98 % 1023,6 hPa 0,0 l/m 0 min 0 min 0 W/m 0,0 km/h (0 Bft) 95,74 %
18.01.2021 07:16 3,5 C 2,8 C 2,3 C 98 % 1023,6 hPa 0,0 l/m 0 min 0 min 0 W/m 0,0 km/h (0 Bft) 93,62 %
18.01.2021 07:14 3,5 C 2,8 C 2,3 C 98 % 1023,5 hPa 0,0 l/m 0 min 0 min 0 W/m 0,0 km/h (0 Bft) 94,74 %
18.01.2021 07:12 3,5 C 2,8 C 2,3 C 98 % 1023,5 hPa 0,0 l/m 0 min 0 min 0 W/m 0,0 km/h (0 Bft) 93,62 %
18.01.2021 07:10 3,5 C 2,8 C 2,3 C 98 % 1023,5 hPa 0,0 l/m 0 min 0 min 0 W/m 1,6 km/h (1 Bft) 95,74 %
18.01.2021 07:08 3,5 C 2,8 C 2,3 C 98 % 1023,5 hPa 0,0 l/m 0 min 0 min 0 W/m 4,8 km/h (1 Bft) 95,74 %
18.01.2021 07:06 3,5 C 2,8 C 2,3 C 98 % 1023,5 hPa 0,0 l/m 0 min 0 min 0 W/m 0,0 km/h (0 Bft) 93,48 %
18.01.2021 07:04 3,5 C 2,8 C 2,3 C 98 % 1023,5 hPa 0,0 l/m 0 min 0 min 0 W/m 0,0 km/h (0 Bft) 93,62 %
18.01.2021 07:02 3,5 C 2,8 C 2,3 C 98 % 1023,5 hPa 0,0 l/m 0 min 0 min 0 W/m 0,0 km/h (0 Bft) 89,36 %
18.01.2021 07:00 3,5 C 2,8 C 2,3 C 98 % 1023,5 hPa 0,0 l/m 0 min 0 min 0 W/m 0,0 km/h (0 Bft) 97,87 %
18.01.2021 06:58 3,5 C 2,8 C 2,3 C 98 % 1023,5 hPa 0,0 l/m 0 min 0 min 0 W/m 0,0 km/h (0 Bft) 95,74 %
18.01.2021 06:56 3,5 C 2,8 C 2,3 C 98 % 1023,5 hPa 0,0 l/m 0 min 0 min 0 W/m 0,0 km/h (0 Bft) 97,83 %
18.01.2021 06:54 3,5 C 2,8 C 2,3 C 98 % 1023,5 hPa 0,0 l/m 0 min 0 min 0 W/m 1,6 km/h (1 Bft) 100,00 %
18.01.2021 06:52 3,5 C 2,8 C 2,3 C 98 % 1023,6 hPa 0,0 l/m 0 min 0 min 0 W/m 0,0 km/h (0 Bft) 93,62 %
18.01.2021 06:50 3,5 C 2,8 C 2,3 C 99 % 1023,5 hPa 0,0 l/m 0 min 0 min 0 W/m 0,0 km/h (0 Bft) 97,87 %
18.01.2021 06:48 3,5 C 2,8 C 2,3 C 99 % 1023,5 hPa 0,0 l/m 0 min 0 min 0 W/m 1,6 km/h (1 Bft) 97,87 %
18.01.2021 06:46 3,5 C 2,8 C 2,3 C 99 % 1023,5 hPa 0,0 l/m 0 min 0 min 0 W/m 0,0 km/h (0 Bft) 100,00 %
18.01.2021 06:44 3,5 C 2,8 C 2,3 C 99 % 1023,5 hPa 0,0 l/m 0 min 0 min 0 W/m 0,0 km/h (0 Bft) 100,00 %
18.01.2021 06:42 3,5 C 2,8 C 2,3 C 99 % 1023,5 hPa 0,0 l/m 0 min 0 min 0 W/m 0,0 km/h (0 Bft) 100,00 %
18.01.2021 06:40 3,5 C 2,8 C 2,3 C 99 % 1023,4 hPa 0,0 l/m 0 min 0 min 0 W/m 0,0 km/h (0 Bft) 100,00 %
18.01.2021 06:38 3,5 C 2,8 C 2,3 C 98 % 1023,4 hPa 0,0 l/m 0 min 0 min 0 W/m 0,0 km/h (0 Bft) 97,87 %
18.01.2021 06:36 3,5 C 2,8 C 2,3 C 98 % 1023,4 hPa 0,0 l/m 0 min 0 min 0 W/m 0,0 km/h (0 Bft) 100,00 %
18.01.2021 06:34 3,5 C 2,8 C 2,3 C 98 % 1023,4 hPa 0,0 l/m 0 min 0 min 0 W/m 1,6 km/h (1 Bft) 100,00 %
18.01.2021 06:32 3,5 C 2,8 C 2,3 C 98 % 1023,4 hPa 0,0 l/m 0 min 0 min 0 W/m 1,6 km/h (1 Bft) 100,00 %
18.01.2021 06:30 3,5 C 2,8 C 2,3 C 99 % 1023,3 hPa 0,0 l/m 0 min 0 min 0 W/m 1,6 km/h (1 Bft) 100,00 %
18.01.2021 06:28 3,5 C 2,8 C 2,3 C 99 % 1023,3 hPa 0,0 l/m 0 min 0 min 0 W/m 0,0 km/h (0 Bft) 100,00 %
18.01.2021 06:26 3,5 C 2,8 C 2,3 C 99 % 1023,3 hPa 0,0 l/m 0 min 0 min 0 W/m 0,0 km/h (0 Bft) 100,00 %
18.01.2021 06:24 3,5 C 2,8 C 2,3 C 99 % 1023,3 hPa 0,0 l/m 0 min 0 min 0 W/m 0,0 km/h (0 Bft) 97,87 %
18.01.2021 06:22 3,5 C 2,8 C 2,3 C 99 % 1023,3 hPa 0,0 l/m 0 min 0 min 0 W/m 0,0 km/h (0 Bft) 97,87 %
18.01.2021 06:20 3,5 C 2,8 C 2,3 C 99 % 1023,3 hPa 0,0 l/m 0 min 0 min 0 W/m 0,0 km/h (0 Bft) 100,00 %
18.01.2021 06:18 3,5 C 2,8 C 2,3 C 99 % 1023,3 hPa 0,0 l/m 0 min 0 min 0 W/m 3,2 km/h (1 Bft) 100,00 %
18.01.2021 06:16 3,5 C 2,8 C 2,3 C 99 % 1023,3 hPa 0,0 l/m 0 min 0 min 0 W/m 1,6 km/h (1 Bft) 100,00 %
18.01.2021 06:14 3,5 C 2,8 C 2,3 C 99 % 1023,3 hPa 0,0 l/m 0 min 0 min 0 W/m 0,0 km/h (0 Bft) 100,00 %
18.01.2021 06:12 3,5 C 2,8 C 2,3 C 99 % 1023,3 hPa 0,0 l/m 0 min 0 min 0 W/m 0,0 km/h (0 Bft) 97,87 %
18.01.2021 06:10 3,5 C 2,8 C 2,3 C 99 % 1023,3 hPa 0,0 l/m 0 min 0 min 0 W/m 0,0 km/h (0 Bft) 100,00 %
18.01.2021 06:08 3,5 C 2,8 C 2,3 C 99 % 1023,3 hPa 0,0 l/m 0 min 0 min 0 W/m 1,6 km/h (1 Bft) 100,00 %
18.01.2021 06:04 3,5 C 2,8 C 2,3 C 99 % 1023,3 hPa 0,0 l/m 0 min 0 min 0 W/m 9,7 km/h (2 Bft) 100,00 %
18.01.2021 06:02 3,5 C 2,8 C 2,3 C 99 % 1023,3 hPa 0,0 l/m 0 min 0 min 0 W/m 0,0 km/h (0 Bft) 100,00 %
18.01.2021 06:00 3,5 C 2,8 C 2,3 C 99 % 1023,4 hPa 0,0 l/m 0 min 0 min 0 W/m 0,0 km/h (0 Bft) 57,45 %
18.01.2021 05:58 3,5 C 2,8 C 2,3 C 99 % 1023,4 hPa 0,0 l/m 0 min 0 min 0 W/m 1,6 km/h (1 Bft) 100,00 %
18.01.2021 05:56 3,5 C 2,8 C 2,3 C 99 % 1023,4 hPa 0,0 l/m 0 min 0 min 0 W/m 1,6 km/h (1 Bft) 95,65 %
18.01.2021 05:54 3,5 C 2,8 C 2,3 C 99 % 1023,4 hPa 0,0 l/m 0 min 0 min 0 W/m 1,6 km/h (1 Bft) 97,87 %
18.01.2021 05:52 3,5 C 2,8 C 2,3 C 99 % 1023,4 hPa 0,0 l/m 0 min 0 min 0 W/m 1,6 km/h (1 Bft) 100,00 %
18.01.2021 05:50 3,5 C 2,8 C 2,3 C 99 % 1023,5 hPa 0,0 l/m 0 min 0 min 0 W/m 1,6 km/h (1 Bft) 100,00 %
18.01.2021 05:48 3,5 C 2,8 C 2,3 C 99 % 1023,4 hPa 0,0 l/m 0 min 0 min 0 W/m 0,0 km/h (0 Bft) 97,87 %
18.01.2021 05:46 3,5 C 2,8 C 2,3 C 99 % 1023,5 hPa 0,0 l/m 0 min 0 min 0 W/m 0,0 km/h (0 Bft) 97,87 %
18.01.2021 05:44 3,5 C 2,8 C 2,3 C 99 % 1023,5 hPa 0,0 l/m 0 min 0 min 0 W/m 6,4 km/h (2 Bft) 100,00 %
18.01.2021 05:42 3,5 C 2,8 C 2,3 C 99 % 1023,5 hPa 0,0 l/m 0 min 0 min 0 W/m 6,4 km/h (2 Bft) 100,00 %
18.01.2021 05:40 3,5 C 2,8 C 2,3 C 99 % 1023,5 hPa 0,0 l/m 0 min 0 min 0 W/m 0,0 km/h (0 Bft) 100,00 %
18.01.2021 05:38 3,5 C 2,8 C 2,3 C 99 % 1023,6 hPa 0,0 l/m 0 min 0 min 0 W/m 0,0 km/h (0 Bft) 97,87 %
18.01.2021 05:36 3,5 C 2,8 C 2,3 C 99 % 1023,5 hPa 0,0 l/m 0 min 0 min 0 W/m 0,0 km/h (0 Bft) 100,00 %
18.01.2021 05:34 3,5 C 2,8 C 2,3 C 99 % 1023,6 hPa 0,0 l/m 0 min 0 min 0 W/m 1,6 km/h (1 Bft) 100,00 %
18.01.2021 05:32 3,5 C 2,8 C 2,3 C 99 % 1023,6 hPa 0,0 l/m 0 min 0 min 0 W/m 9,7 km/h (2 Bft) 97,87 %
18.01.2021 05:30 3,5 C 2,8 C 2,3 C 99 % 1023,6 hPa 0,0 l/m 0 min 0 min 0 W/m 1,6 km/h (1 Bft) 100,00 %
18.01.2021 05:28 3,5 C 2,8 C 2,3 C 99 % 1023,6 hPa 0,0 l/m 0 min 0 min 0 W/m 0,0 km/h (0 Bft) 97,87 %
18.01.2021 05:26 3,5 C 2,8 C 2,3 C 99 % 1023,5 hPa 0,0 l/m 0 min 0 min 0 W/m 0,0 km/h (0 Bft) 97,87 %
18.01.2021 05:24 3,5 C 2,8 C 2,3 C 99 % 1023,5 hPa 0,0 l/m 0 min 0 min 0 W/m 0,0 km/h (0 Bft) 100,00 %
18.01.2021 05:22 3,5 C 2,8 C 2,3 C 99 % 1023,5 hPa 0,0 l/m 0 min 0 min 0 W/m 3,2 km/h (1 Bft) 100,00 %
18.01.2021 05:20 3,5 C 2,8 C 2,3 C 99 % 1023,6 hPa 0,0 l/m 0 min 0 min 0 W/m 8,0 km/h (2 Bft) 100,00 %
18.01.2021 05:18 3,5 C 2,8 C 2,3 C 99 % 1023,6 hPa 0,0 l/m 0 min 0 min 0 W/m 1,6 km/h (1 Bft) 100,00 %
18.01.2021 05:16 3,5 C 2,8 C 2,3 C 99 % 1023,6 hPa 0,0 l/m 0 min 0 min 0 W/m 0,0 km/h (0 Bft) 100,00 %
18.01.2021 05:14 3,5 C 2,8 C 2,3 C 99 % 1023,6 hPa 0,0 l/m 0 min 0 min 0 W/m 1,6 km/h (1 Bft) 100,00 %
18.01.2021 05:12 3,5 C 2,8 C 2,3 C 99 % 1023,6 hPa 0,0 l/m 0 min 0 min 0 W/m 0,0 km/h (0 Bft) 97,87 %
18.01.2021 05:10 3,5 C 2,8 C 2,3 C 99 % 1023,7 hPa 0,0 l/m 0 min 0 min 0 W/m 0,0 km/h (0 Bft) 100,00 %
18.01.2021 05:08 3,5 C 2,8 C 2,3 C 99 % 1023,6 hPa 0,0 l/m 0 min 0 min 0 W/m 0,0 km/h (0 Bft) 97,87 %
18.01.2021 05:06 3,5 C 2,8 C 2,3 C 99 % 1023,7 hPa 0,0 l/m 0 min 0 min 0 W/m 0,0 km/h (0 Bft) 100,00 %
18.01.2021 05:04 3,5 C 2,8 C 2,3 C 99 % 1023,6 hPa 0,0 l/m 0 min 0 min 0 W/m 0,0 km/h (0 Bft) 97,87 %
18.01.2021 05:02 3,5 C 2,8 C 2,3 C 99 % 1023,6 hPa 0,0 l/m 0 min 0 min 0 W/m 0,0 km/h (0 Bft) 97,96 %
18.01.2021 05:00 3,5 C 2,8 C 2,3 C 99 % 1023,6 hPa 0,0 l/m 0 min 0 min 0 W/m 0,0 km/h (0 Bft) 97,87 %
18.01.2021 04:58 3,5 C 2,8 C 2,3 C 99 % 1023,6 hPa 0,0 l/m 0 min 0 min 0 W/m 0,0 km/h (0 Bft) 100,00 %
18.01.2021 04:56 3,5 C 2,8 C 2,3 C 99 % 1023,5 hPa 0,0 l/m 0 min 0 min 0 W/m 0,0 km/h (0 Bft) 93,62 %
18.01.2021 04:54 3,5 C 2,8 C 2,3 C 99 % 1023,5 hPa 0,0 l/m 0 min 0 min 0 W/m 0,0 km/h (0 Bft) 97,87 %
18.01.2021 04:52 3,5 C 2,8 C 2,3 C 99 % 1023,5 hPa 0,0 l/m 0 min 0 min 0 W/m 0,0 km/h (0 Bft) 97,87 %
18.01.2021 04:50 3,5 C 2,8 C 2,3 C 99 % 1023,5 hPa 0,0 l/m 0 min 0 min 0 W/m 1,6 km/h (1 Bft) 93,62 %
18.01.2021 04:48 3,5 C 2,8 C 2,3 C 99 % 1023,5 hPa 0,0 l/m 0 min 0 min 0 W/m 0,0 km/h (0 Bft) 95,65 %
18.01.2021 04:46 3,5 C 2,8 C 2,3 C 99 % 1023,5 hPa 0,0 l/m 0 min 0 min 0 W/m 0,0 km/h (0 Bft) 93,62 %
18.01.2021 04:44 3,5 C 2,8 C 2,3 C 99 % 1023,5 hPa 0,0 l/m 0 min 0 min 0 W/m 0,0 km/h (0 Bft) 95,74 %
18.01.2021 04:42 3,5 C 2,8 C 2,3 C 99 % 1023,5 hPa 0,0 l/m 0 min 0 min 0 W/m 0,0 km/h (0 Bft) 95,74 %
18.01.2021 04:40 3,5 C 2,8 C 2,3 C 99 % 1023,5 hPa 0,0 l/m 0 min 0 min 0 W/m 0,0 km/h (0 Bft) 91,49 %
18.01.2021 04:38 3,5 C 2,8 C 2,3 C 99 % 1023,5 hPa 0,0 l/m 0 min 0 min 0 W/m 0,0 km/h (0 Bft) 95,74 %
18.01.2021 04:36 3,5 C 2,8 C 2,3 C 99 % 1023,5 hPa 0,0 l/m 0 min 0 min 0 W/m 0,0 km/h (0 Bft) 95,65 %
18.01.2021 04:34 3,5 C 2,8 C 2,3 C 99 % 1023,5 hPa 0,0 l/m 0 min 0 min 0 W/m 0,0 km/h (0 Bft) 95,74 %
18.01.2021 04:32 3,5 C 2,8 C 2,3 C 99 % 1023,6 hPa 0,0 l/m 0 min 0 min 0 W/m 0,0 km/h (0 Bft) 93,62 %
18.01.2021 04:30 3,5 C 2,8 C 2,3 C 99 % 1023,6 hPa 0,0 l/m 0 min 0 min 0 W/m 0,0 km/h (0 Bft) 93,62 %
18.01.2021 04:28 3,5 C 2,8 C 2,3 C 99 % 1023,6 hPa 0,0 l/m 0 min 0 min 0 W/m 0,0 km/h (0 Bft) 93,62 %
18.01.2021 04:26 3,5 C 2,8 C 2,3 C 99 % 1023,6 hPa 0,0 l/m 0 min 0 min 0 W/m 0,0 km/h (0 Bft) 95,74 %
18.01.2021 04:24 3,6 C 2,8 C 2,3 C 99 % 1023,6 hPa 0,0 l/m 0 min 0 min 0 W/m 0,0 km/h (0 Bft) 95,65 %
18.01.2021 04:22 3,6 C 2,8 C 2,3 C 99 % 1023,6 hPa 0,0 l/m 0 min 0 min 0 W/m 1,6 km/h (1 Bft) 93,62 %
18.01.2021 04:20 3,6 C 2,8 C 2,3 C 99 % 1023,7 hPa 0,0 l/m 0 min 0 min 0 W/m 0,0 km/h (0 Bft) 95,74 %
18.01.2021 04:18 3,6 C 2,8 C 2,3 C 99 % 1023,7 hPa 0,0 l/m 0 min 0 min 0 W/m 1,6 km/h (1 Bft) 95,74 %
18.01.2021 04:16 3,6 C 2,8 C 2,3 C 99 % 1023,7 hPa 0,0 l/m 0 min 0 min 0 W/m 0,0 km/h (0 Bft) 93,62 %
18.01.2021 04:14 3,6 C 2,8 C 2,3 C 99 % 1023,7 hPa 0,0 l/m 0 min 0 min 0 W/m 0,0 km/h (0 Bft) 100,00 %
18.01.2021 04:12 3,6 C 2,8 C 2,3 C 99 % 1023,6 hPa 0,0 l/m 0 min 0 min 0 W/m 1,6 km/h (1 Bft) 93,48 %
18.01.2021 04:10 3,6 C 2,8 C 2,3 C 99 % 1023,7 hPa 0,0 l/m 0 min 0 min 0 W/m 0,0 km/h (0 Bft) 94,44 %
18.01.2021 04:08 3,6 C 3,3 C 2,3 C 99 % 1023,7 hPa 0,0 l/m 0 min 0 min 0 W/m 0,0 km/h (0 Bft) 97,87 %
18.01.2021 04:06 3,6 C 3,3 C 2,3 C 99 % 1023,6 hPa 0,0 l/m 0 min 0 min 0 W/m 1,6 km/h (1 Bft) 97,83 %
18.01.2021 04:04 3,6 C 3,3 C 2,3 C 99 % 1023,7 hPa 0,0 l/m 0 min 0 min 0 W/m 0,0 km/h (0 Bft) 95,74 %
18.01.2021 04:02 3,7 C 3,3 C 2,3 C 99 % 1023,6 hPa 0,0 l/m 0 min 0 min 0 W/m 0,0 km/h (0 Bft) 100,00 %
18.01.2021 04:00 3,6 C 2,8 C 2,3 C 99 % 1023,6 hPa 0,0 l/m 0 min 0 min 0 W/m 0,0 km/h (0 Bft) 97,87 %
_ Min-Zeit 08:38 04:00 04:00 14:46 03:16 - - - - 04:00 08:58
Minimum _ 3,4 C 2,8 C 2,3 C 86 % 1016,2 hPa - - - - 0,0 km/h (0 Bft) 50,00 %
_ Max-Zeit 14:42 11:52 12:00 04:00 10:56 14:52 12:08 00:08 12:00 21:08 04:02
Maximum _ 6,4 C 7,2 C 6,2 C 99 % 1023,8 hPa 0,2 l/m 4 min 4 min 305 W/m 22,5 km/h
S-SO (4 Bft)
100,00 %
Durchschnitt _ 4,7 C 4,2 C 3,0 C 94 % 1021,5 hPa #0,6 l/m #0 min. #22 min. 0 W/m 4,1 km/h (1 Bft) 97,42 %
© 2021 W. Hausmann